Wetterdaten: Mittwoch, 12.02.2014
Datum Zeit Temp. Aussen +5cm Feuchte Auss Luftdruck Regen Sonnenschein Regendauer UV Solar Windben
12.02.2014 00:00 4,8 C 3,3 C 92 % 1002,4 hPa 0,0 l/m 0 min 2 min 0,0 UV-I 0 W/m 18,0 km/h (3 Bft)
12.02.2014 00:02 4,8 C 3,3 C 92 % 1002,4 hPa 0,0 l/m 0 min 2 min 0,0 UV-I 0 W/m 12,9 km/h (3 Bft)
12.02.2014 00:04 4,8 C 3,3 C 92 % 1002,4 hPa 0,0 l/m 0 min 0 min 0,0 UV-I 0 W/m 23,2 km/h (4 Bft)
12.02.2014 00:06 4,8 C 3,3 C 92 % 1002,5 hPa 0,0 l/m 0 min 2 min 0,0 UV-I 0 W/m 15,4 km/h (3 Bft)
12.02.2014 00:08 4,8 C 3,3 C 92 % 1002,5 hPa 0,0 l/m 0 min 2 min 0,0 UV-I 0 W/m 12,9 km/h (3 Bft)
12.02.2014 00:10 4,8 C 3,3 C 92 % 1002,5 hPa 0,0 l/m 0 min 0 min 0,0 UV-I 0 W/m 7,7 km/h (2 Bft)
12.02.2014 00:12 4,8 C 3,3 C 92 % 1002,5 hPa 0,0 l/m 0 min 0 min 0,0 UV-I 0 W/m 18,0 km/h (3 Bft)
12.02.2014 00:14 4,8 C 3,3 C 92 % 1002,6 hPa 0,0 l/m 0 min 0 min 0,0 UV-I 0 W/m 0,0 km/h (0 Bft)
12.02.2014 00:16 4,8 C 3,3 C 92 % 1002,6 hPa 0,0 l/m 0 min 0 min 0,0 UV-I 0 W/m 10,3 km/h (2 Bft)
12.02.2014 00:18 4,8 C 3,3 C 92 % 1002,6 hPa 0,0 l/m 0 min 0 min 0,0 UV-I 0 W/m 0,0 km/h (0 Bft)
12.02.2014 00:20 4,8 C 3,3 C 92 % 1002,6 hPa 0,0 l/m 0 min 0 min 0,0 UV-I 0 W/m 12,9 km/h (3 Bft)
12.02.2014 00:22 4,8 C 3,3 C 92 % 1002,6 hPa 0,0 l/m 0 min 0 min 0,0 UV-I 0 W/m 18,0 km/h (3 Bft)
12.02.2014 00:24 4,8 C 3,3 C 92 % 1002,7 hPa 0,0 l/m 0 min 0 min 0,0 UV-I 0 W/m 12,9 km/h (3 Bft)
12.02.2014 00:26 4,8 C 3,3 C 92 % 1002,8 hPa 0,0 l/m 0 min 0 min 0,0 UV-I 0 W/m 7,7 km/h (2 Bft)
12.02.2014 00:28 4,8 C 3,3 C 92 % 1002,7 hPa 0,0 l/m 0 min 0 min 0,0 UV-I 0 W/m 10,3 km/h (2 Bft)
12.02.2014 00:30 4,8 C 3,3 C 92 % 1002,8 hPa 0,0 l/m 0 min 0 min 0,0 UV-I 0 W/m 7,7 km/h (2 Bft)
12.02.2014 00:32 4,8 C 3,3 C 92 % 1002,9 hPa 0,0 l/m 0 min 0 min 0,0 UV-I 0 W/m 2,6 km/h (1 Bft)
12.02.2014 00:34 4,8 C 3,3 C 92 % 1002,9 hPa 0,0 l/m 0 min 0 min 0,0 UV-I 0 W/m 10,3 km/h (2 Bft)
12.02.2014 00:36 4,8 C 3,3 C 92 % 1002,9 hPa 0,0 l/m 0 min 0 min 0,0 UV-I 0 W/m 20,6 km/h (4 Bft)
12.02.2014 00:38 4,8 C 3,3 C 92 % 1002,9 hPa 0,0 l/m 0 min 0 min 0,0 UV-I 0 W/m 15,4 km/h (3 Bft)
12.02.2014 00:40 4,8 C 3,3 C 92 % 1002,9 hPa 0,0 l/m 0 min 0 min 0,0 UV-I 0 W/m 18,0 km/h (3 Bft)
12.02.2014 00:42 4,9 C 3,3 C 92 % 1003,0 hPa 0,0 l/m 0 min 0 min 0,0 UV-I 0 W/m 10,3 km/h (2 Bft)
12.02.2014 00:44 4,9 C 3,3 C 92 % 1003,0 hPa 0,0 l/m 0 min 0 min 0,0 UV-I 0 W/m 20,6 km/h (4 Bft)
12.02.2014 00:46 4,9 C 3,3 C 92 % 1002,9 hPa 0,0 l/m 0 min 0 min 0,0 UV-I 0 W/m 10,3 km/h (2 Bft)
12.02.2014 00:48 4,9 C 3,3 C 92 % 1003,1 hPa 0,0 l/m 0 min 0 min 0,0 UV-I 0 W/m 10,3 km/h (2 Bft)
12.02.2014 00:50 4,9 C 3,3 C 92 % 1003,0 hPa 0,0 l/m 0 min 0 min 0,0 UV-I 0 W/m 7,7 km/h (2 Bft)
12.02.2014 00:52 4,9 C 3,3 C 92 % 1003,1 hPa 0,0 l/m 0 min 0 min 0,0 UV-I 0 W/m 7,7 km/h (2 Bft)
12.02.2014 00:54 4,9 C 3,3 C 92 % 1003,1 hPa 0,0 l/m 0 min 0 min 0,0 UV-I 0 W/m 2,6 km/h (1 Bft)
12.02.2014 00:56 4,9 C 3,3 C 92 % 1003,2 hPa 0,0 l/m 0 min 0 min 0,0 UV-I 0 W/m 10,3 km/h (2 Bft)
12.02.2014 00:58 4,9 C 3,3 C 92 % 1003,3 hPa 0,0 l/m 0 min 0 min 0,0 UV-I 0 W/m 15,4 km/h (3 Bft)
12.02.2014 01:00 4,9 C 3,3 C 91 % 1003,3 hPa 0,0 l/m 0 min 0 min 0,0 UV-I 0 W/m 20,6 km/h (4 Bft)
12.02.2014 01:02 4,9 C 3,3 C 91 % 1003,3 hPa 0,0 l/m 0 min 0 min 0,0 UV-I 0 W/m 12,9 km/h (3 Bft)
12.02.2014 01:04 4,9 C 3,3 C 91 % 1003,2 hPa 0,0 l/m 0 min 0 min 0,0 UV-I 0 W/m 15,4 km/h (3 Bft)
12.02.2014 01:06 4,9 C 3,3 C 91 % 1003,3 hPa 0,0 l/m 0 min 0 min 0,0 UV-I 0 W/m 10,3 km/h (2 Bft)
12.02.2014 01:08 4,9 C 3,3 C 91 % 1003,3 hPa 0,0 l/m 0 min 0 min 0,0 UV-I 0 W/m 7,7 km/h (2 Bft)
12.02.2014 01:10 4,8 C 3,3 C 91 % 1003,3 hPa 0,0 l/m 0 min 0 min 0,0 UV-I 0 W/m 5,1 km/h (1 Bft)
12.02.2014 01:12 4,8 C 3,3 C 91 % 1003,3 hPa 0,0 l/m 0 min 0 min 0,0 UV-I 0 W/m 7,7 km/h (2 Bft)
12.02.2014 01:14 4,8 C 3,3 C 91 % 1003,3 hPa 0,0 l/m 0 min 0 min 0,0 UV-I 0 W/m 0,0 km/h (0 Bft)
12.02.2014 01:16 4,8 C 3,3 C 91 % 1003,3 hPa 0,0 l/m 0 min 0 min 0,0 UV-I 0 W/m 15,4 km/h (3 Bft)
12.02.2014 01:18 4,8 C 2,8 C 91 % 1003,3 hPa 0,0 l/m 0 min 0 min 0,0 UV-I 0 W/m 10,3 km/h (2 Bft)
12.02.2014 01:20 4,8 C 2,8 C 91 % 1003,4 hPa 0,0 l/m 0 min 0 min 0,0 UV-I 0 W/m 10,3 km/h (2 Bft)
12.02.2014 01:22 4,8 C 2,8 C 91 % 1003,3 hPa 0,0 l/m 0 min 0 min 0,0 UV-I 0 W/m 10,3 km/h (2 Bft)
12.02.2014 01:24 4,8 C 2,8 C 91 % 1003,3 hPa 0,0 l/m 0 min 0 min 0,0 UV-I 0 W/m 10,3 km/h (2 Bft)
12.02.2014 01:26 4,8 C 2,8 C 91 % 1003,4 hPa 0,0 l/m 0 min 0 min 0,0 UV-I 0 W/m 12,9 km/h (3 Bft)
12.02.2014 01:28 4,7 C 2,8 C 91 % 1003,4 hPa 0,0 l/m 0 min 0 min 0,0 UV-I 0 W/m 15,4 km/h (3 Bft)
12.02.2014 01:30 4,7 C 2,8 C 91 % 1003,5 hPa 0,0 l/m 0 min 0 min 0,0 UV-I 0 W/m 5,1 km/h (1 Bft)
12.02.2014 01:32 4,7 C 2,8 C 91 % 1003,5 hPa 0,0 l/m 0 min 0 min 0,0 UV-I 0 W/m 18,0 km/h (3 Bft)
12.02.2014 01:34 4,7 C 2,8 C 91 % 1003,4 hPa 0,0 l/m 0 min 0 min 0,0 UV-I 0 W/m 15,4 km/h (3 Bft)
12.02.2014 01:36 4,7 C 2,8 C 91 % 1003,5 hPa 0,0 l/m 0 min 0 min 0,0 UV-I 0 W/m 12,9 km/h (3 Bft)
12.02.2014 01:38 4,7 C 2,8 C 91 % 1003,5 hPa 0,0 l/m 0 min 0 min 0,0 UV-I 0 W/m 5,1 km/h (1 Bft)
12.02.2014 01:40 4,7 C 2,8 C 91 % 1003,5 hPa 0,0 l/m 0 min 0 min 0,0 UV-I 0 W/m 12,9 km/h (3 Bft)
12.02.2014 01:42 4,7 C 2,8 C 91 % 1003,5 hPa 0,0 l/m 0 min 0 min 0,0 UV-I 0 W/m 10,3 km/h (2 Bft)
12.02.2014 01:44 4,7 C 2,8 C 91 % 1003,5 hPa 0,0 l/m 0 min 0 min 0,0 UV-I 0 W/m 10,3 km/h (2 Bft)
12.02.2014 01:46 4,6 C 2,8 C 91 % 1003,6 hPa 0,0 l/m 0 min 0 min 0,0 UV-I 0 W/m 7,7 km/h (2 Bft)
12.02.2014 01:48 4,7 C 2,8 C 91 % 1003,6 hPa 0,0 l/m 0 min 0 min 0,0 UV-I 0 W/m 2,6 km/h (1 Bft)
12.02.2014 01:50 4,7 C 2,8 C 91 % 1003,7 hPa 0,0 l/m 0 min 0 min 0,0 UV-I 0 W/m 7,7 km/h (2 Bft)
12.02.2014 01:52 4,7 C 2,8 C 91 % 1003,7 hPa 0,0 l/m 0 min 0 min 0,0 UV-I 0 W/m 12,9 km/h (3 Bft)
12.02.2014 01:54 4,7 C 2,8 C 91 % 1003,7 hPa 0,0 l/m 0 min 0 min 0,0 UV-I 0 W/m 0,0 km/h (0 Bft)
12.02.2014 01:56 4,7 C 2,8 C 91 % 1003,7 hPa 0,0 l/m 0 min 0 min 0,0 UV-I 0 W/m 2,6 km/h (1 Bft)
12.02.2014 01:58 4,7 C 3,3 C 91 % 1003,8 hPa 0,0 l/m 0 min 0 min 0,0 UV-I 0 W/m 7,7 km/h (2 Bft)
12.02.2014 02:00 4,7 C 3,3 C 91 % 1003,9 hPa 0,0 l/m 0 min 0 min 0,0 UV-I 0 W/m 12,9 km/h (3 Bft)
12.02.2014 02:02 4,7 C 3,3 C 91 % 1003,9 hPa 0,0 l/m 0 min 0 min 0,0 UV-I 0 W/m 0,0 km/h (0 Bft)
12.02.2014 02:04 4,7 C 3,3 C 91 % 1003,9 hPa 0,0 l/m 0 min 0 min 0,0 UV-I 0 W/m 10,3 km/h (2 Bft)
12.02.2014 02:06 4,8 C 3,3 C 91 % 1003,9 hPa 0,0 l/m 0 min 0 min 0,0 UV-I 0 W/m 7,7 km/h (2 Bft)
12.02.2014 02:08 4,8 C 3,3 C 91 % 1003,9 hPa 0,0 l/m 0 min 0 min 0,0 UV-I 0 W/m 12,9 km/h (3 Bft)
12.02.2014 02:10 4,8 C 3,3 C 91 % 1003,9 hPa 0,0 l/m 0 min 0 min 0,0 UV-I 0 W/m 7,7 km/h (2 Bft)
12.02.2014 02:12 4,8 C 3,3 C 91 % 1003,9 hPa 0,0 l/m 0 min 0 min 0,0 UV-I 0 W/m 0,0 km/h (0 Bft)
12.02.2014 02:14 4,8 C 3,3 C 91 % 1003,9 hPa 0,0 l/m 0 min 0 min 0,0 UV-I 0 W/m 7,7 km/h (2 Bft)
12.02.2014 02:16 4,8 C 3,3 C 91 % 1003,9 hPa 0,0 l/m 0 min 0 min 0,0 UV-I 0 W/m 2,6 km/h (1 Bft)
12.02.2014 02:18 4,8 C 3,3 C 91 % 1004,0 hPa 0,0 l/m 0 min 0 min 0,0 UV-I 0 W/m 0,0 km/h (0 Bft)
12.02.2014 02:20 4,8 C 3,3 C 91 % 1004,0 hPa 0,0 l/m 0 min 0 min 0,0 UV-I 0 W/m 2,6 km/h (1 Bft)
12.02.2014 02:22 4,8 C 3,3 C 91 % 1004,0 hPa 0,0 l/m 0 min 0 min 0,0 UV-I 0 W/m 15,4 km/h (3 Bft)
12.02.2014 02:24 4,7 C 3,3 C 91 % 1004,1 hPa 0,0 l/m 0 min 0 min 0,0 UV-I 0 W/m 12,9 km/h (3 Bft)
12.02.2014 02:26 4,8 C 3,3 C 91 % 1004,0 hPa 0,0 l/m 0 min 0 min 0,0 UV-I 0 W/m 10,3 km/h (2 Bft)
12.02.2014 02:28 4,7 C 3,3 C 91 % 1004,1 hPa 0,0 l/m 0 min 0 min 0,0 UV-I 0 W/m 5,1 km/h (1 Bft)
12.02.2014 02:30 4,7 C 3,3 C 91 % 1004,1 hPa 0,0 l/m 0 min 0 min 0,0 UV-I 0 W/m 12,9 km/h (3 Bft)
12.02.2014 02:32 4,7 C 3,3 C 91 % 1004,1 hPa 0,0 l/m 0 min 0 min 0,0 UV-I 0 W/m 18,0 km/h (3 Bft)
12.02.2014 02:34 4,8 C 3,3 C 91 % 1004,1 hPa 0,0 l/m 0 min 0 min 0,0 UV-I 0 W/m 12,9 km/h (3 Bft)
12.02.2014 02:36 4,8 C 3,3 C 91 % 1004,1 hPa 0,0 l/m 0 min 0 min 0,0 UV-I 0 W/m 7,7 km/h (2 Bft)
12.02.2014 02:38 4,8 C 3,3 C 91 % 1004,1 hPa 0,0 l/m 0 min 0 min 0,0 UV-I 0 W/m 7,7 km/h (2 Bft)
12.02.2014 02:40 4,8 C 3,3 C 91 % 1004,2 hPa 0,0 l/m 0 min 0 min 0,0 UV-I 0 W/m 10,3 km/h (2 Bft)
12.02.2014 02:42 4,8 C 3,3 C 91 % 1004,2 hPa 0,0 l/m 0 min 0 min 0,0 UV-I 0 W/m 15,4 km/h (3 Bft)
12.02.2014 02:44 4,8 C 3,3 C 91 % 1004,2 hPa 0,0 l/m 0 min 0 min 0,0 UV-I 0 W/m 0,0 km/h (0 Bft)
12.02.2014 02:46 4,8 C 3,3 C 90 % 1004,2 hPa 0,0 l/m 0 min 0 min 0,0 UV-I 0 W/m 15,4 km/h (3 Bft)
12.02.2014 02:48 4,8 C 3,3 C 90 % 1004,3 hPa 0,0 l/m 0 min 0 min 0,0 UV-I 0 W/m 2,6 km/h (1 Bft)
12.02.2014 02:50 4,8 C 3,3 C 90 % 1004,3 hPa 0,0 l/m 0 min 0 min 0,0 UV-I 0 W/m 5,1 km/h (1 Bft)
12.02.2014 02:52 4,8 C 3,3 C 90 % 1004,3 hPa 0,0 l/m 0 min 0 min 0,0 UV-I 0 W/m 15,4 km/h (3 Bft)
12.02.2014 02:54 4,8 C 3,3 C 90 % 1004,2 hPa 0,0 l/m 0 min 0 min 0,0 UV-I 0 W/m 5,1 km/h (1 Bft)
12.02.2014 02:56 4,8 C 3,3 C 90 % 1004,3 hPa 0,0 l/m 0 min 0 min 0,0 UV-I 0 W/m 18,0 km/h (3 Bft)
12.02.2014 02:58 4,9 C 3,3 C 90 % 1004,3 hPa 0,0 l/m 0 min 0 min 0,0 UV-I 0 W/m 7,7 km/h (2 Bft)
12.02.2014 03:00 4,9 C 3,3 C 90 % 1004,4 hPa 0,0 l/m 0 min 0 min 0,0 UV-I 0 W/m 12,9 km/h (3 Bft)
12.02.2014 03:02 4,9 C 3,3 C 90 % 1004,3 hPa 0,0 l/m 0 min 0 min 0,0 UV-I 0 W/m 18,0 km/h (3 Bft)
12.02.2014 03:04 4,9 C 3,3 C 90 % 1004,4 hPa 0,0 l/m 0 min 0 min 0,0 UV-I 0 W/m 10,3 km/h (2 Bft)
12.02.2014 03:06 4,9 C 3,3 C 90 % 1004,4 hPa 0,0 l/m 0 min 0 min 0,0 UV-I 0 W/m 7,7 km/h (2 Bft)
12.02.2014 03:08 4,9 C 3,3 C 90 % 1004,5 hPa 0,0 l/m 0 min 0 min 0,0 UV-I 0 W/m 7,7 km/h (2 Bft)
12.02.2014 03:10 4,9 C 3,3 C 90 % 1004,5 hPa 0,0 l/m 0 min 0 min 0,0 UV-I 0 W/m 5,1 km/h (1 Bft)
12.02.2014 03:12 4,9 C 3,3 C 90 % 1004,5 hPa 0,0 l/m 0 min 0 min 0,0 UV-I 0 W/m 5,1 km/h (1 Bft)
12.02.2014 03:14 4,9 C 3,3 C 90 % 1004,5 hPa 0,0 l/m 0 min 0 min 0,0 UV-I 0 W/m 0,0 km/h (0 Bft)
12.02.2014 03:16 4,9 C 3,3 C 90 % 1004,5 hPa 0,0 l/m 0 min 0 min 0,0 UV-I 0 W/m 2,6 km/h (1 Bft)
12.02.2014 03:18 4,9 C 3,3 C 90 % 1004,5 hPa 0,0 l/m 0 min 0 min 0,0 UV-I 0 W/m 0,0 km/h (0 Bft)
12.02.2014 03:20 4,9 C 3,3 C 90 % 1004,6 hPa 0,0 l/m 0 min 0 min 0,0 UV-I 0 W/m 10,3 km/h (2 Bft)
12.02.2014 03:22 4,9 C 3,3 C 90 % 1004,5 hPa 0,0 l/m 0 min 0 min 0,0 UV-I 0 W/m 12,9 km/h (3 Bft)
12.02.2014 03:24 4,9 C 3,3 C 90 % 1004,5 hPa 0,0 l/m 0 min 0 min 0,0 UV-I 0 W/m 12,9 km/h (3 Bft)
12.02.2014 03:26 4,9 C 3,3 C 90 % 1004,5 hPa 0,0 l/m 0 min 0 min 0,0 UV-I 0 W/m 10,3 km/h (2 Bft)
12.02.2014 03:28 4,8 C 2,8 C 90 % 1004,5 hPa 0,0 l/m 0 min 0 min 0,0 UV-I 0 W/m 7,7 km/h (2 Bft)
12.02.2014 03:30 4,8 C 2,8 C 90 % 1004,5 hPa 0,0 l/m 0 min 0 min 0,0 UV-I 0 W/m 18,0 km/h (3 Bft)
12.02.2014 03:32 4,8 C 2,8 C 90 % 1004,6 hPa 0,0 l/m 0 min 0 min 0,0 UV-I 0 W/m 5,1 km/h (1 Bft)
12.02.2014 03:34 4,7 C 2,8 C 90 % 1004,5 hPa 0,0 l/m 0 min 0 min 0,0 UV-I 0 W/m 18,0 km/h (3 Bft)
12.02.2014 03:36 4,7 C 2,8 C 90 % 1004,7 hPa 0,0 l/m 0 min 0 min 0,0 UV-I 0 W/m 10,3 km/h (2 Bft)
12.02.2014 03:38 4,7 C 2,8 C 89 % 1004,6 hPa 0,0 l/m 0 min 0 min 0,0 UV-I 0 W/m 2,6 km/h (1 Bft)
12.02.2014 03:40 4,6 C 2,8 C 89 % 1004,6 hPa 0,0 l/m 0 min 0 min 0,0 UV-I 0 W/m 15,4 km/h (3 Bft)
12.02.2014 03:42 4,6 C 2,8 C 89 % 1004,6 hPa 0,0 l/m 0 min 0 min 0,0 UV-I 0 W/m 0,0 km/h (0 Bft)
12.02.2014 03:44 4,5 C 2,8 C 89 % 1004,7 hPa 0,0 l/m 0 min 0 min 0,0 UV-I 0 W/m 2,6 km/h (1 Bft)
12.02.2014 03:46 4,4 C 2,2 C 90 % 1004,6 hPa 0,0 l/m 0 min 0 min 0,0 UV-I 0 W/m 10,3 km/h (2 Bft)
12.02.2014 03:48 4,4 C 2,2 C 90 % 1004,6 hPa 0,0 l/m 0 min 0 min 0,0 UV-I 0 W/m 10,3 km/h (2 Bft)
12.02.2014 03:50 4,3 C 2,2 C 89 % 1004,7 hPa 0,0 l/m 0 min 0 min 0,0 UV-I 0 W/m 7,7 km/h (2 Bft)
12.02.2014 03:52 4,3 C 2,2 C 90 % 1004,7 hPa 0,0 l/m 0 min 0 min 0,0 UV-I 0 W/m 7,7 km/h (2 Bft)
12.02.2014 03:54 4,3 C 2,2 C 90 % 1004,7 hPa 0,0 l/m 0 min 0 min 0,0 UV-I 0 W/m 7,7 km/h (2 Bft)
12.02.2014 03:56 4,2 C 2,2 C 90 % 1004,7 hPa 0,0 l/m 0 min 0 min 0,0 UV-I 0 W/m 7,7 km/h (2 Bft)
12.02.2014 03:58 4,2 C 2,2 C 90 % 1004,7 hPa 0,0 l/m 0 min 0 min 0,0 UV-I 0 W/m 7,7 km/h (2 Bft)
12.02.2014 04:00 4,2 C 2,2 C 90 % 1004,7 hPa 0,0 l/m 0 min 0 min 0,0 UV-I 0 W/m 12,9 km/h (3 Bft)
12.02.2014 04:02 4,2 C 2,2 C 90 % 1004,7 hPa 0,0 l/m 0 min 0 min 0,0 UV-I 0 W/m 5,1 km/h (1 Bft)
12.02.2014 04:04 4,1 C 2,2 C 90 % 1004,7 hPa 0,0 l/m 0 min 0 min 0,0 UV-I 0 W/m 2,6 km/h (1 Bft)
12.02.2014 04:06 4,1 C 2,2 C 90 % 1004,7 hPa 0,0 l/m 0 min 0 min 0,0 UV-I 0 W/m 0,0 km/h (0 Bft)
12.02.2014 04:08 4,1 C 2,2 C 90 % 1004,8 hPa 0,0 l/m 0 min 0 min 0,0 UV-I 0 W/m 2,6 km/h (1 Bft)
12.02.2014 04:10 4,1 C 2,2 C 90 % 1004,6 hPa 0,0 l/m 0 min 0 min 0,0 UV-I 0 W/m 10,3 km/h (2 Bft)
12.02.2014 04:12 4,0 C 2,2 C 90 % 1004,8 hPa 0,0 l/m 0 min 0 min 0,0 UV-I 0 W/m 5,1 km/h (1 Bft)
12.02.2014 04:14 4,0 C 2,2 C 90 % 1004,8 hPa 0,0 l/m 0 min 0 min 0,0 UV-I 0 W/m 15,4 km/h (3 Bft)
12.02.2014 04:16 4,0 C 2,2 C 90 % 1004,8 hPa 0,0 l/m 0 min 0 min 0,0 UV-I 0 W/m 15,4 km/h (3 Bft)
12.02.2014 04:18 4,0 C 2,2 C 90 % 1004,8 hPa 0,0 l/m 0 min 0 min 0,0 UV-I 0 W/m 12,9 km/h (3 Bft)
12.02.2014 04:20 4,0 C 2,2 C 90 % 1004,8 hPa 0,0 l/m 0 min 0 min 0,0 UV-I 0 W/m 20,6 km/h (4 Bft)
12.02.2014 04:22 4,0 C 2,2 C 90 % 1004,8 hPa 0,0 l/m 0 min 0 min 0,0 UV-I 0 W/m 15,4 km/h (3 Bft)
12.02.2014 04:24 3,9 C 2,2 C 90 % 1004,9 hPa 0,0 l/m 0 min 0 min 0,0 UV-I 0 W/m 5,1 km/h (1 Bft)
12.02.2014 04:26 3,9 C 2,2 C 90 % 1004,9 hPa 0,0 l/m 0 min 0 min 0,0 UV-I 0 W/m 10,3 km/h (2 Bft)
12.02.2014 04:28 3,9 C 2,2 C 90 % 1005,0 hPa 0,0 l/m 0 min 0 min 0,0 UV-I 0 W/m 5,1 km/h (1 Bft)
12.02.2014 04:30 3,9 C 2,2 C 90 % 1005,0 hPa 0,0 l/m 0 min 0 min 0,0 UV-I 0 W/m 15,4 km/h (3 Bft)
12.02.2014 04:32 3,9 C 2,2 C 90 % 1004,9 hPa 0,0 l/m 0 min 0 min 0,0 UV-I 0 W/m 18,0 km/h (3 Bft)
12.02.2014 04:34 3,9 C 2,2 C 90 % 1005,0 hPa 0,0 l/m 0 min 0 min 0,0 UV-I 0 W/m 15,4 km/h (3 Bft)
12.02.2014 04:36 3,8 C 2,2 C 90 % 1005,0 hPa 0,0 l/m 0 min 0 min 0,0 UV-I 0 W/m 2,6 km/h (1 Bft)
12.02.2014 04:38 3,8 C 2,2 C 90 % 1005,1 hPa 0,0 l/m 0 min 0 min 0,0 UV-I 0 W/m 15,4 km/h (3 Bft)
12.02.2014 04:40 3,8 C 2,2 C 90 % 1005,1 hPa 0,0 l/m 0 min 0 min 0,0 UV-I 0 W/m 5,1 km/h (1 Bft)
12.02.2014 04:42 3,8 C 2,2 C 90 % 1005,1 hPa 0,0 l/m 0 min 0 min 0,0 UV-I 0 W/m 12,9 km/h (3 Bft)
12.02.2014 04:44 3,8 C 2,2 C 90 % 1005,1 hPa 0,0 l/m 0 min 0 min 0,0 UV-I 0 W/m 10,3 km/h (2 Bft)
12.02.2014 04:46 3,8 C 2,2 C 90 % 1005,1 hPa 0,0 l/m 0 min 0 min 0,0 UV-I 0 W/m 10,3 km/h (2 Bft)
12.02.2014 04:48 3,7 C 2,2 C 90 % 1005,2 hPa 0,0 l/m 0 min 0 min 0,0 UV-I 0 W/m 7,7 km/h (2 Bft)
12.02.2014 04:50 3,7 C 2,2 C 90 % 1005,2 hPa 0,0 l/m 0 min 0 min 0,0 UV-I 0 W/m 7,7 km/h (2 Bft)
12.02.2014 04:52 3,7 C 2,2 C 90 % 1005,3 hPa 0,0 l/m 0 min 0 min 0,0 UV-I 0 W/m 7,7 km/h (2 Bft)
12.02.2014 04:54 3,7 C 1,7 C 91 % 1005,3 hPa 0,0 l/m 0 min 0 min 0,0 UV-I 0 W/m 0,0 km/h (0 Bft)
12.02.2014 04:56 3,6 C 1,7 C 91 % 1005,4 hPa 0,0 l/m 0 min 0 min 0,0 UV-I 0 W/m 7,7 km/h (2 Bft)
12.02.2014 04:58 3,6 C 1,7 C 91 % 1005,4 hPa 0,0 l/m 0 min 0 min 0,0 UV-I 0 W/m 10,3 km/h (2 Bft)
12.02.2014 05:00 3,6 C 1,7 C 91 % 1005,4 hPa 0,0 l/m 0 min 0 min 0,0 UV-I 0 W/m 15,4 km/h (3 Bft)
12.02.2014 05:02 3,6 C 1,7 C 91 % 1005,2 hPa 0,0 l/m 0 min 0 min 0,0 UV-I 0 W/m 0,0 km/h (0 Bft)
12.02.2014 05:04 3,5 C 1,7 C 91 % 1005,3 hPa 0,0 l/m 0 min 0 min 0,0 UV-I 0 W/m 15,4 km/h (3 Bft)
12.02.2014 05:06 3,6 C 1,7 C 91 % 1005,3 hPa 0,0 l/m 0 min 0 min 0,0 UV-I 0 W/m 5,1 km/h (1 Bft)
12.02.2014 05:08 3,6 C 1,7 C 91 % 1005,3 hPa 0,0 l/m 0 min 0 min 0,0 UV-I 0 W/m 18,0 km/h (3 Bft)
12.02.2014 05:10 3,6 C 1,7 C 91 % 1005,4 hPa 0,0 l/m 0 min 0 min 0,0 UV-I 0 W/m 10,3 km/h (2 Bft)
12.02.2014 05:12 3,6 C 1,7 C 91 % 1005,4 hPa 0,0 l/m 0 min 0 min 0,0 UV-I 0 W/m 12,9 km/h (3 Bft)
12.02.2014 05:14 3,6 C 1,7 C 91 % 1005,4 hPa 0,0 l/m 0 min 0 min 0,0 UV-I 0 W/m 12,9 km/h (3 Bft)
12.02.2014 05:16 3,6 C 1,7 C 91 % 1005,5 hPa 0,0 l/m 0 min 0 min 0,0 UV-I 0 W/m 15,4 km/h (3 Bft)
12.02.2014 05:18 3,6 C 1,7 C 91 % 1005,4 hPa 0,0 l/m 0 min 0 min 0,0 UV-I 0 W/m 12,9 km/h (3 Bft)
12.02.2014 05:20 3,6 C 1,7 C 91 % 1005,5 hPa 0,0 l/m 0 min 0 min 0,0 UV-I 0 W/m 12,9 km/h (3 Bft)
12.02.2014 05:22 3,6 C 1,7 C 91 % 1005,5 hPa 0,0 l/m 0 min 0 min 0,0 UV-I 0 W/m 18,0 km/h (3 Bft)
12.02.2014 05:24 3,6 C 1,7 C 91 % 1005,5 hPa 0,0 l/m 0 min 0 min 0,0 UV-I 0 W/m 5,1 km/h (1 Bft)
12.02.2014 05:26 3,6 C 1,7 C 91 % 1005,6 hPa 0,0 l/m 0 min 0 min 0,0 UV-I 0 W/m 2,6 km/h (1 Bft)
12.02.2014 05:28 3,6 C 1,7 C 91 % 1005,6 hPa 0,0 l/m 0 min 0 min 0,0 UV-I 0 W/m 0,0 km/h (0 Bft)
12.02.2014 05:30 3,6 C 1,7 C 91 % 1005,7 hPa 0,0 l/m 0 min 0 min 0,0 UV-I 0 W/m 0,0 km/h (0 Bft)
12.02.2014 05:32 3,5 C 1,7 C 91 % 1005,6 hPa 0,0 l/m 0 min 0 min 0,0 UV-I 0 W/m 7,7 km/h (2 Bft)
12.02.2014 05:34 3,5 C 1,7 C 91 % 1005,6 hPa 0,0 l/m 0 min 0 min 0,0 UV-I 0 W/m 7,7 km/h (2 Bft)
12.02.2014 05:36 3,5 C 1,7 C 91 % 1005,7 hPa 0,0 l/m 0 min 0 min 0,0 UV-I 0 W/m 5,1 km/h (1 Bft)
12.02.2014 05:38 3,5 C 1,7 C 91 % 1005,8 hPa 0,0 l/m 0 min 0 min 0,0 UV-I 0 W/m 7,7 km/h (2 Bft)
12.02.2014 05:40 3,5 C 1,7 C 91 % 1005,8 hPa 0,0 l/m 0 min 0 min 0,0 UV-I 0 W/m 10,3 km/h (2 Bft)
12.02.2014 05:42 3,5 C 1,7 C 91 % 1005,8 hPa 0,0 l/m 0 min 0 min 0,0 UV-I 0 W/m 0,0 km/h (0 Bft)
12.02.2014 05:44 3,4 C 1,7 C 91 % 1005,9 hPa 0,0 l/m 0 min 0 min 0,0 UV-I 0 W/m 12,9 km/h (3 Bft)
12.02.2014 05:46 3,4 C 1,7 C 91 % 1005,8 hPa 0,0 l/m 0 min 0 min 0,0 UV-I 0 W/m 12,9 km/h (3 Bft)
12.02.2014 05:48 3,4 C 1,7 C 91 % 1005,8 hPa 0,0 l/m 0 min 0 min 0,0 UV-I 0 W/m 0,0 km/h (0 Bft)
12.02.2014 05:50 3,4 C 1,7 C 92 % 1005,9 hPa 0,0 l/m 0 min 0 min 0,0 UV-I 0 W/m 10,3 km/h (2 Bft)
12.02.2014 05:52 3,4 C 1,7 C 92 % 1006,0 hPa 0,0 l/m 0 min 0 min 0,0 UV-I 0 W/m 15,4 km/h (3 Bft)
12.02.2014 05:54 3,4 C 1,7 C 92 % 1006,1 hPa 0,0 l/m 0 min 0 min 0,0 UV-I 0 W/m 10,3 km/h (2 Bft)
12.02.2014 05:56 3,4 C 1,7 C 92 % 1006,1 hPa 0,0 l/m 0 min 0 min 0,0 UV-I 0 W/m 0,0 km/h (0 Bft)
12.02.2014 05:58 3,4 C 1,7 C 92 % 1006,2 hPa 0,0 l/m 0 min 0 min 0,0 UV-I 0 W/m 2,6 km/h (1 Bft)
12.02.2014 06:00 3,4 C 1,7 C 92 % 1006,2 hPa 0,0 l/m 0 min 0 min 0,0 UV-I 0 W/m 15,4 km/h (3 Bft)
12.02.2014 06:02 3,4 C 1,7 C 91 % 1006,1 hPa 0,0 l/m 0 min 0 min 0,0 UV-I 0 W/m 10,3 km/h (2 Bft)
12.02.2014 06:04 3,4 C 1,7 C 92 % 1006,2 hPa 0,0 l/m 0 min 0 min 0,0 UV-I 0 W/m 7,7 km/h (2 Bft)
12.02.2014 06:06 3,4 C 1,7 C 92 % 1006,2 hPa 0,0 l/m 0 min 0 min 0,0 UV-I 0 W/m 10,3 km/h (2 Bft)
12.02.2014 06:08 3,4 C 1,7 C 92 % 1006,3 hPa 0,0 l/m 0 min 0 min 0,0 UV-I 0 W/m 20,6 km/h (4 Bft)
12.02.2014 06:10 3,5 C 1,7 C 92 % 1006,4 hPa 0,0 l/m 0 min 0 min 0,0 UV-I 0 W/m 15,4 km/h (3 Bft)
12.02.2014 06:12 3,5 C 1,7 C 92 % 1006,4 hPa 0,0 l/m 0 min 0 min 0,0 UV-I 0 W/m 2,6 km/h (1 Bft)
12.02.2014 06:14 3,5 C 1,7 C 92 % 1006,3 hPa 0,0 l/m 0 min 0 min 0,0 UV-I 0 W/m 10,3 km/h (2 Bft)
12.02.2014 06:16 3,5 C 1,7 C 91 % 1006,4 hPa 0,0 l/m 0 min 0 min 0,0 UV-I 0 W/m 10,3 km/h (2 Bft)
12.02.2014 06:18 3,5 C 1,7 C 91 % 1006,4 hPa 0,0 l/m 0 min 0 min 0,0 UV-I 0 W/m 20,6 km/h (4 Bft)
12.02.2014 06:20 3,5 C 1,7 C 91 % 1006,3 hPa 0,0 l/m 0 min 0 min 0,0 UV-I 0 W/m 10,3 km/h (2 Bft)
12.02.2014 06:22 3,5 C 1,7 C 91 % 1006,3 hPa 0,0 l/m 0 min 0 min 0,0 UV-I 0 W/m 15,4 km/h (3 Bft)
12.02.2014 06:24 3,5 C 1,7 C 91 % 1006,4 hPa 0,0 l/m 0 min 0 min 0,0 UV-I 0 W/m 5,1 km/h (1 Bft)
12.02.2014 06:26 3,4 C 1,7 C 91 % 1006,4 hPa 0,0 l/m 0 min 0 min 0,0 UV-I 0 W/m 7,7 km/h (2 Bft)
12.02.2014 06:28 3,4 C 1,7 C 91 % 1006,4 hPa 0,0 l/m 0 min 0 min 0,0 UV-I 0 W/m 15,4 km/h (3 Bft)
12.02.2014 06:30 3,4 C 1,7 C 91 % 1006,4 hPa 0,0 l/m 0 min 0 min 0,0 UV-I 0 W/m 18,0 km/h (3 Bft)
12.02.2014 06:32 3,5 C 1,7 C 91 % 1006,4 hPa 0,0 l/m 0 min 0 min 0,0 UV-I 0 W/m 7,7 km/h (2 Bft)
12.02.2014 06:34 3,4 C 1,7 C 91 % 1006,4 hPa 0,0 l/m 0 min 0 min 0,0 UV-I 0 W/m 12,9 km/h (3 Bft)
12.02.2014 06:36 3,4 C 1,7 C 91 % 1006,5 hPa 0,0 l/m 0 min 0 min 0,0 UV-I 0 W/m 10,3 km/h (2 Bft)
12.02.2014 06:38 3,4 C 1,7 C 91 % 1006,6 hPa 0,0 l/m 0 min 0 min 0,0 UV-I 0 W/m 5,1 km/h (1 Bft)
12.02.2014 06:40 3,4 C 1,7 C 91 % 1006,6 hPa 0,0 l/m 0 min 0 min 0,0 UV-I 0 W/m 12,9 km/h (3 Bft)
12.02.2014 06:42 3,5 C 1,7 C 91 % 1006,5 hPa 0,0 l/m 0 min 0 min 0,0 UV-I 0 W/m 10,3 km/h (2 Bft)
12.02.2014 06:44 3,4 C 1,7 C 91 % 1006,5 hPa 0,0 l/m 0 min 0 min 0,0 UV-I 0 W/m 12,9 km/h (3 Bft)
12.02.2014 06:46 3,4 C 1,7 C 91 % 1006,5 hPa 0,0 l/m 0 min 0 min 0,0 UV-I 0 W/m 7,7 km/h (2 Bft)
12.02.2014 06:48 3,4 C 1,7 C 91 % 1006,5 hPa 0,0 l/m 0 min 0 min 0,0 UV-I 0 W/m 10,3 km/h (2 Bft)
12.02.2014 06:50 3,4 C 1,7 C 91 % 1006,6 hPa 0,0 l/m 0 min 0 min 0,0 UV-I 0 W/m 10,3 km/h (2 Bft)
12.02.2014 06:52 3,5 C 1,7 C 91 % 1006,6 hPa 0,0 l/m 0 min 0 min 0,0 UV-I 0 W/m 12,9 km/h (3 Bft)
12.02.2014 06:54 3,5 C 1,7 C 91 % 1006,7 hPa 0,0 l/m 0 min 0 min 0,0 UV-I 0 W/m 10,3 km/h (2 Bft)
12.02.2014 06:56 3,5 C 1,7 C 91 % 1006,7 hPa 0,0 l/m 0 min 0 min 0,0 UV-I 0 W/m 10,3 km/h (2 Bft)
12.02.2014 06:58 3,5 C 1,7 C 91 % 1006,8 hPa 0,0 l/m 0 min 0 min 0,0 UV-I 0 W/m 0,0 km/h (0 Bft)
12.02.2014 07:00 3,4 C 1,7 C 91 % 1006,7 hPa 0,0 l/m 0 min 0 min 0,0 UV-I 0 W/m 12,9 km/h (3 Bft)
12.02.2014 07:02 3,4 C 1,7 C 91 % 1006,7 hPa 0,0 l/m 0 min 0 min 0,0 UV-I 0 W/m 10,3 km/h (2 Bft)
12.02.2014 07:04 3,4 C 1,7 C 91 % 1006,7 hPa 0,0 l/m 0 min 0 min 0,0 UV-I 0 W/m 18,0 km/h (3 Bft)
12.02.2014 07:06 3,4 C 1,7 C 91 % 1006,7 hPa 0,0 l/m 0 min 0 min 0,0 UV-I 0 W/m 5,1 km/h (1 Bft)
12.02.2014 07:08 3,4 C 1,7 C 91 % 1006,7 hPa 0,0 l/m 0 min 0 min 0,0 UV-I 0 W/m 10,3 km/h (2 Bft)
12.02.2014 07:10 3,4 C 1,7 C 91 % 1006,8 hPa 0,0 l/m 0 min 0 min 0,0 UV-I 0 W/m 0,0 km/h (0 Bft)
12.02.2014 07:12 3,4 C 1,7 C 91 % 1006,7 hPa 0,0 l/m 0 min 0 min 0,0 UV-I 0 W/m 18,0 km/h (3 Bft)
12.02.2014 07:14 3,4 C 1,7 C 91 % 1006,7 hPa 0,0 l/m 0 min 0 min 0,0 UV-I 0 W/m 12,9 km/h (3 Bft)
12.02.2014 07:16 3,4 C 1,7 C 91 % 1006,7 hPa 0,0 l/m 0 min 0 min 0,0 UV-I 0 W/m 10,3 km/h (2 Bft)
12.02.2014 07:18 3,4 C 1,7 C 91 % 1006,8 hPa 0,0 l/m 0 min 0 min 0,0 UV-I 0 W/m 10,3 km/h (2 Bft)
12.02.2014 07:20 3,4 C 1,7 C 91 % 1006,9 hPa 0,0 l/m 0 min 0 min 0,0 UV-I 0 W/m 0,0 km/h (0 Bft)
12.02.2014 07:22 3,4 C 1,7 C 91 % 1006,8 hPa 0,0 l/m 0 min 0 min 0,0 UV-I 0 W/m 7,7 km/h (2 Bft)
12.02.2014 07:24 3,4 C 1,7 C 91 % 1006,9 hPa 0,0 l/m 0 min 0 min 0,0 UV-I 0 W/m 20,6 km/h (4 Bft)
12.02.2014 07:26 3,4 C 1,7 C 91 % 1006,8 hPa 0,0 l/m 0 min 0 min 0,0 UV-I 0 W/m 10,3 km/h (2 Bft)
12.02.2014 07:28 3,4 C 1,7 C 91 % 1006,8 hPa 0,0 l/m 0 min 0 min 0,0 UV-I 0 W/m 25,7 km/h (4 Bft)
12.02.2014 07:30 3,3 C 1,7 C 91 % 1006,8 hPa 0,0 l/m 0 min 0 min 0,0 UV-I 0 W/m 10,3 km/h (2 Bft)
12.02.2014 07:32 3,3 C 1,7 C 91 % 1006,9 hPa 0,0 l/m 0 min 0 min 0,0 UV-I 0 W/m 7,7 km/h (2 Bft)
12.02.2014 07:34 3,4 C 1,7 C 91 % 1006,9 hPa 0,0 l/m 0 min 0 min 0,0 UV-I 0 W/m 12,9 km/h (3 Bft)
12.02.2014 07:36 3,4 C 1,7 C 91 % 1007,0 hPa 0,0 l/m 0 min 0 min 0,0 UV-I 0 W/m 7,7 km/h (2 Bft)
12.02.2014 07:38 3,4 C 1,7 C 91 % 1007,1 hPa 0,0 l/m 0 min 0 min 0,0 UV-I 0 W/m 5,1 km/h (1 Bft)
12.02.2014 07:40 3,3 C 1,7 C 91 % 1007,0 hPa 0,0 l/m 0 min 0 min 0,0 UV-I 0 W/m 7,7 km/h (2 Bft)
12.02.2014 07:42 3,4 C 1,7 C 91 % 1007,0 hPa 0,0 l/m 0 min 0 min 0,0 UV-I 0 W/m 15,4 km/h (3 Bft)
12.02.2014 07:44 3,4 C 1,7 C 91 % 1007,1 hPa 0,0 l/m 0 min 0 min 0,0 UV-I 0 W/m 12,9 km/h (3 Bft)
12.02.2014 07:46 3,4 C 1,7 C 91 % 1007,1 hPa 0,0 l/m 0 min 0 min 0,0 UV-I 0 W/m 10,3 km/h (2 Bft)
12.02.2014 07:48 3,4 C 1,7 C 91 % 1007,0 hPa 0,0 l/m 0 min 0 min 0,0 UV-I 0 W/m 5,1 km/h (1 Bft)
12.02.2014 07:50 3,4 C 1,7 C 91 % 1007,0 hPa 0,0 l/m 0 min 0 min 0,0 UV-I 5 W/m 10,3 km/h (2 Bft)
12.02.2014 07:52 3,4 C 1,7 C 91 % 1007,0 hPa 0,0 l/m 0 min 0 min 0,0 UV-I 5 W/m 18,0 km/h (3 Bft)
12.02.2014 07:54 3,4 C 1,7 C 91 % 1007,0 hPa 0,0 l/m 0 min 0 min 0,0 UV-I 5 W/m 0,0 km/h (0 Bft)
12.02.2014 07:56 3,3 C 1,7 C 91 % 1007,0 hPa 0,0 l/m 0 min 0 min 0,0 UV-I 7 W/m 0,0 km/h (0 Bft)
12.02.2014 07:58 3,3 C 1,7 C 91 % 1007,0 hPa 0,0 l/m 0 min 0 min 0,0 UV-I 7 W/m 10,3 km/h (2 Bft)
12.02.2014 08:00 3,3 C 1,7 C 91 % 1007,0 hPa 0,0 l/m 0 min 0 min 0,0 UV-I 7 W/m 10,3 km/h (2 Bft)
12.02.2014 08:02 3,3 C 1,7 C 91 % 1007,0 hPa 0,0 l/m 0 min 0 min 0,0 UV-I 9 W/m 12,9 km/h (3 Bft)
12.02.2014 08:04 3,3 C 1,7 C 91 % 1007,1 hPa 0,0 l/m 0 min 0 min 0,0 UV-I 9 W/m 7,7 km/h (2 Bft)
12.02.2014 08:06 3,3 C 1,7 C 91 % 1007,1 hPa 0,0 l/m 0 min 0 min 0,0 UV-I 11 W/m 7,7 km/h (2 Bft)
12.02.2014 08:08 3,3 C 1,7 C 91 % 1007,2 hPa 0,0 l/m 0 min 0 min 0,0 UV-I 11 W/m 0,0 km/h (0 Bft)
12.02.2014 08:10 3,3 C 1,7 C 91 % 1007,2 hPa 0,0 l/m 0 min 0 min 0,0 UV-I 11 W/m 10,3 km/h (2 Bft)
12.02.2014 08:12 3,3 C 1,7 C 91 % 1007,4 hPa 0,0 l/m 0 min 0 min 0,0 UV-I 14 W/m 0,0 km/h (0 Bft)
12.02.2014 08:14 3,3 C 1,7 C 91 % 1007,4 hPa 0,0 l/m 0 min 0 min 0,0 UV-I 14 W/m 10,3 km/h (2 Bft)
12.02.2014 08:16 3,3 C 1,7 C 91 % 1007,4 hPa 0,0 l/m 0 min 0 min 0,0 UV-I 16 W/m 0,0 km/h (0 Bft)
12.02.2014 08:18 3,3 C 1,7 C 91 % 1007,3 hPa 0,0 l/m 0 min 0 min 0,0 UV-I 16 W/m 10,3 km/h (2 Bft)
12.02.2014 08:20 3,3 C 1,7 C 91 % 1007,4 hPa 0,0 l/m 0 min 0 min 0,0 UV-I 18 W/m 2,6 km/h (1 Bft)
12.02.2014 08:22 3,3 C 1,7 C 91 % 1007,5 hPa 0,0 l/m 0 min 0 min 0,0 UV-I 18 W/m 7,7 km/h (2 Bft)
12.02.2014 08:24 3,3 C 1,7 C 91 % 1007,3 hPa 0,0 l/m 0 min 0 min 0,0 UV-I 19 W/m 10,3 km/h (2 Bft)
12.02.2014 08:26 3,3 C 1,7 C 91 % 1007,4 hPa 0,0 l/m 0 min 0 min 0,0 UV-I 19 W/m 2,6 km/h (1 Bft)
12.02.2014 08:28 3,3 C 1,7 C 91 % 1007,5 hPa 0,0 l/m 0 min 0 min 0,0 UV-I 21 W/m 20,6 km/h (4 Bft)
12.02.2014 08:30 3,4 C 1,7 C 91 % 1007,5 hPa 0,0 l/m 0 min 0 min 0,0 UV-I 21 W/m 12,9 km/h (3 Bft)
12.02.2014 08:32 3,4 C 1,7 C 91 % 1007,4 hPa 0,0 l/m 0 min 0 min 0,0 UV-I 23 W/m 5,1 km/h (1 Bft)
12.02.2014 08:34 3,4 C 1,7 C 91 % 1007,5 hPa 0,0 l/m 0 min 0 min 0,0 UV-I 23 W/m 10,3 km/h (2 Bft)
12.02.2014 08:36 3,4 C 1,7 C 91 % 1007,5 hPa 0,0 l/m 0 min 0 min 0,0 UV-I 25 W/m 0,0 km/h (0 Bft)
12.02.2014 08:38 3,4 C 1,7 C 91 % 1007,6 hPa 0,0 l/m 0 min 0 min 0,0 UV-I 26 W/m 5,1 km/h (1 Bft)
12.02.2014 08:40 3,4 C 1,7 C 91 % 1007,6 hPa 0,0 l/m 0 min 0 min 0,0 UV-I 26 W/m 2,6 km/h (1 Bft)
12.02.2014 08:42 3,4 C 2,2 C 91 % 1007,5 hPa 0,0 l/m 0 min 0 min 0,0 UV-I 28 W/m 15,4 km/h (3 Bft)
12.02.2014 08:44 3,5 C 2,2 C 91 % 1007,6 hPa 0,0 l/m 0 min 0 min 0,0 UV-I 28 W/m 5,1 km/h (1 Bft)
12.02.2014 08:46 3,6 C 2,2 C 91 % 1007,6 hPa 0,0 l/m 0 min 0 min 0,0 UV-I 30 W/m 5,1 km/h (1 Bft)
12.02.2014 08:48 3,6 C 2,2 C 91 % 1007,7 hPa 0,0 l/m 0 min 0 min 0,0 UV-I 30 W/m 15,4 km/h (3 Bft)
12.02.2014 08:50 3,6 C 2,2 C 91 % 1007,7 hPa 0,0 l/m 0 min 0 min 0,0 UV-I 32 W/m 15,4 km/h (3 Bft)
12.02.2014 08:52 3,6 C 2,2 C 91 % 1007,8 hPa 0,0 l/m 0 min 0 min 0,0 UV-I 35 W/m 7,7 km/h (2 Bft)
12.02.2014 08:54 3,7 C 2,2 C 91 % 1007,7 hPa 0,0 l/m 0 min 0 min 0,0 UV-I 58 W/m 7,7 km/h (2 Bft)
12.02.2014 08:56 3,7 C 2,2 C 90 % 1007,7 hPa 0,0 l/m 0 min 0 min 0,0 UV-I 69 W/m 12,9 km/h (3 Bft)
12.02.2014 08:58 3,8 C 2,8 C 95 % 1007,8 hPa 0,0 l/m 2 min 0 min 0,0 UV-I 81 W/m 12,9 km/h (3 Bft)
12.02.2014 09:00 3,9 C 2,8 C 90 % 1007,8 hPa 0,0 l/m 0 min 0 min 0,0 UV-I 77 W/m 10,3 km/h (2 Bft)
12.02.2014 09:02 3,9 C 2,8 C 90 % 1007,8 hPa 0,0 l/m 0 min 0 min 0,0 UV-I 63 W/m 10,3 km/h (2 Bft)
12.02.2014 09:04 4,0 C 2,8 C 90 % 1007,8 hPa 0,0 l/m 0 min 0 min 0,0 UV-I 60 W/m 12,9 km/h (3 Bft)
12.02.2014 09:06 4,1 C 2,8 C 90 % 1007,8 hPa 0,0 l/m 0 min 0 min 0,0 UV-I 60 W/m 15,4 km/h (3 Bft)
12.02.2014 09:08 4,1 C 2,8 C 89 % 1007,8 hPa 0,0 l/m 0 min 0 min 0,0 UV-I 49 W/m 18,0 km/h (3 Bft)
12.02.2014 09:10 4,2 C 2,8 C 89 % 1007,9 hPa 0,0 l/m 0 min 0 min 0,0 UV-I 49 W/m 15,4 km/h (3 Bft)
12.02.2014 09:12 4,2 C 2,8 C 89 % 1007,8 hPa 0,0 l/m 0 min 0 min 0,0 UV-I 60 W/m 15,4 km/h (3 Bft)
12.02.2014 09:14 4,2 C 2,8 C 89 % 1007,9 hPa 0,0 l/m 0 min 0 min 0,0 UV-I 58 W/m 10,3 km/h (2 Bft)
12.02.2014 09:16 4,2 C 2,8 C 89 % 1007,8 hPa 0,0 l/m 0 min 0 min 0,0 UV-I 62 W/m 20,6 km/h (4 Bft)
12.02.2014 09:18 4,2 C 2,8 C 89 % 1007,9 hPa 0,0 l/m 0 min 0 min 0,0 UV-I 67 W/m 2,6 km/h (1 Bft)
12.02.2014 09:20 4,2 C 2,8 C 89 % 1007,9 hPa 0,0 l/m 0 min 0 min 0,0 UV-I 76 W/m 5,1 km/h (1 Bft)
12.02.2014 09:22 4,2 C 3,3 C 89 % 1007,8 hPa 0,0 l/m 0 min 0 min 0,0 UV-I 83 W/m 20,6 km/h (4 Bft)
12.02.2014 09:24 4,3 C 3,3 C 88 % 1007,8 hPa 0,0 l/m 0 min 0 min 0,0 UV-I 102 W/m 7,7 km/h (2 Bft)
12.02.2014 09:26 4,3 C 3,3 C 88 % 1007,8 hPa 0,0 l/m 2 min 0 min 0,0 UV-I 151 W/m 7,7 km/h (2 Bft)
12.02.2014 09:28 4,3 C 3,3 C 88 % 1007,8 hPa 0,0 l/m 0 min 0 min 0,0 UV-I 83 W/m 18,0 km/h (3 Bft)
12.02.2014 09:30 4,4 C 3,3 C 88 % 1007,8 hPa 0,0 l/m 0 min 0 min 0,0 UV-I 67 W/m 10,3 km/h (2 Bft)
12.02.2014 09:32 4,4 C 3,3 C 88 % 1007,9 hPa 0,0 l/m 0 min 0 min 0,0 UV-I 67 W/m 23,2 km/h (4 Bft)
12.02.2014 09:34 4,4 C 3,3 C 88 % 1007,9 hPa 0,0 l/m 0 min 0 min 0,0 UV-I 56 W/m 15,4 km/h (3 Bft)
12.02.2014 09:36 4,4 C 2,8 C 88 % 1007,8 hPa 0,0 l/m 0 min 0 min 0,0 UV-I 62 W/m 12,9 km/h (3 Bft)
12.02.2014 09:38 4,3 C 2,8 C 88 % 1007,9 hPa 0,0 l/m 0 min 0 min 0,0 UV-I 62 W/m 15,4 km/h (3 Bft)
12.02.2014 09:40 4,3 C 2,8 C 88 % 1007,9 hPa 0,0 l/m 0 min 0 min 0,0 UV-I 60 W/m 18,0 km/h (3 Bft)
12.02.2014 09:42 4,3 C 2,8 C 88 % 1007,8 hPa 0,0 l/m 0 min 0 min 0,0 UV-I 47 W/m 15,4 km/h (3 Bft)
12.02.2014 09:44 4,4 C 2,8 C 88 % 1007,8 hPa 0,0 l/m 2 min 0 min 0,0 UV-I 141 W/m 12,9 km/h (3 Bft)
12.02.2014 09:46 4,4 C 2,8 C 88 % 1007,8 hPa 0,0 l/m 2 min 0 min 0,0 UV-I 174 W/m 12,9 km/h (3 Bft)
12.02.2014 09:48 4,4 C 3,3 C 88 % 1007,8 hPa 0,0 l/m 2 min 0 min 0,0 UV-I 183 W/m 10,3 km/h (2 Bft)
12.02.2014 09:50 4,5 C 3,3 C 88 % 1007,8 hPa 0,0 l/m 2 min 0 min 0,0 UV-I 190 W/m 7,7 km/h (2 Bft)
12.02.2014 09:52 4,6 C 3,3 C 88 % 1007,9 hPa 0,0 l/m 2 min 0 min 0,0 UV-I 167 W/m 15,4 km/h (3 Bft)
12.02.2014 09:54 4,7 C 3,3 C 88 % 1008,0 hPa 0,0 l/m 2 min 0 min 0,0 UV-I 186 W/m 12,9 km/h (3 Bft)
12.02.2014 09:56 4,8 C 3,3 C 87 % 1008,0 hPa 0,0 l/m 2 min 0 min 0,0 UV-I 199 W/m 20,6 km/h (4 Bft)
12.02.2014 09:58 4,9 C 3,3 C 87 % 1007,9 hPa 0,0 l/m 2 min 0 min 0,0 UV-I 202 W/m 18,0 km/h (3 Bft)
12.02.2014 10:00 4,9 C 3,3 C 87 % 1007,9 hPa 0,0 l/m 2 min 0 min 0,0 UV-I 206 W/m 18,0 km/h (3 Bft)
12.02.2014 10:02 5,1 C 3,3 C 87 % 1007,8 hPa 0,0 l/m 2 min 0 min 0,0 UV-I 209 W/m 10,3 km/h (2 Bft)
12.02.2014 10:04 5,1 C 3,9 C 87 % 1007,9 hPa 0,0 l/m 2 min 0 min 0,0 UV-I 225 W/m 20,6 km/h (4 Bft)
12.02.2014 10:06 5,2 C 3,9 C 86 % 1007,9 hPa 0,0 l/m 2 min 0 min 0,0 UV-I 250 W/m 10,3 km/h (2 Bft)
12.02.2014 10:08 5,3 C 3,9 C 86 % 1007,9 hPa 0,0 l/m 2 min 0 min 0,0 UV-I 320 W/m 25,7 km/h (4 Bft)
12.02.2014 10:10 5,4 C 4,4 C 86 % 1007,9 hPa 0,0 l/m 0 min 0 min 0,0 UV-I 158 W/m 12,9 km/h (3 Bft)
12.02.2014 10:12 5,6 C 4,4 C 86 % 1007,9 hPa 0,0 l/m 0 min 0 min 0,0 UV-I 134 W/m 10,3 km/h (2 Bft)
12.02.2014 10:14 5,6 C 4,4 C 85 % 1007,9 hPa 0,0 l/m 2 min 0 min 0,0 UV-I 255 W/m 18,0 km/h (3 Bft)
12.02.2014 10:16 5,6 C 4,4 C 85 % 1007,8 hPa 0,0 l/m 2 min 0 min 0,0 UV-I 241 W/m 25,7 km/h (4 Bft)
12.02.2014 10:18 5,6 C 4,4 C 84 % 1007,9 hPa 0,0 l/m 2 min 0 min 0,0 UV-I 253 W/m 18,0 km/h (3 Bft)
12.02.2014 10:20 5,7 C 4,4 C 85 % 1007,8 hPa 0,0 l/m 2 min 0 min 0,0 UV-I 292 W/m 20,6 km/h (4 Bft)
12.02.2014 10:22 5,7 C 4,4 C 84 % 1007,8 hPa 0,0 l/m 2 min 0 min 0,0 UV-I 304 W/m 23,2 km/h (4 Bft)
12.02.2014 10:24 5,7 C 4,4 C 84 % 1007,7 hPa 0,0 l/m 2 min 0 min 0,0 UV-I 272 W/m 15,4 km/h (3 Bft)
12.02.2014 10:26 5,7 C 4,4 C 84 % 1007,7 hPa 0,0 l/m 2 min 0 min 0,0 UV-I 264 W/m 18,0 km/h (3 Bft)
12.02.2014 10:28 5,7 C 4,4 C 84 % 1007,7 hPa 0,0 l/m 2 min 0 min 0,0 UV-I 271 W/m 20,6 km/h (4 Bft)
12.02.2014 10:30 5,7 C 4,4 C 84 % 1007,7 hPa 0,0 l/m 2 min 0 min 0,0 UV-I 283 W/m 23,2 km/h (4 Bft)
12.02.2014 10:32 5,7 C 4,4 C 83 % 1007,7 hPa 0,0 l/m 2 min 0 min 0,0 UV-I 283 W/m 15,4 km/h (3 Bft)
12.02.2014 10:34 5,7 C 4,4 C 83 % 1007,7 hPa 0,2 l/m 2 min 0 min 0,0 UV-I 190 W/m 30,9 km/h (5 Bft)
12.02.2014 10:36 5,7 C 4,4 C 83 % 1007,8 hPa 0,0 l/m 0 min 0 min 0,0 UV-I 90 W/m 20,6 km/h (4 Bft)
12.02.2014 10:38 5,7 C 4,4 C 84 % 1007,8 hPa 0,0 l/m 2 min 0 min 0,0 UV-I 308 W/m 12,9 km/h (3 Bft)
12.02.2014 10:40 5,8 C 4,4 C 84 % 1007,9 hPa 0,0 l/m 2 min 0 min 0,0 UV-I 313 W/m 20,6 km/h (4 Bft)
12.02.2014 10:42 5,8 C 4,4 C 83 % 1007,9 hPa 0,0 l/m 0 min 0 min 0,0 UV-I 135 W/m 23,2 km/h (4 Bft)
12.02.2014 10:44 5,8 C 4,4 C 83 % 1007,9 hPa 0,0 l/m 0 min 0 min 0,0 UV-I 135 W/m 18,0 km/h (3 Bft)
12.02.2014 10:46 5,8 C 4,4 C 83 % 1007,9 hPa 0,0 l/m 2 min 0 min 0,0 UV-I 304 W/m 23,2 km/h (4 Bft)
12.02.2014 10:48 5,9 C 4,4 C 83 % 1007,8 hPa 0,0 l/m 2 min 0 min 0,0 UV-I 302 W/m 15,4 km/h (3 Bft)
12.02.2014 10:50 5,9 C 4,4 C 83 % 1007,9 hPa 0,0 l/m 2 min 0 min 0,0 UV-I 316 W/m 18,0 km/h (3 Bft)
12.02.2014 10:52 6,1 C 4,4 C 82 % 1007,9 hPa 0,0 l/m 2 min 0 min 0,0 UV-I 311 W/m 12,9 km/h (3 Bft)
12.02.2014 10:54 6,1 C 4,4 C 82 % 1008,0 hPa 0,0 l/m 2 min 0 min 0,0 UV-I 308 W/m 20,6 km/h (4 Bft)
12.02.2014 10:56 6,2 C 5,0 C 82 % 1007,9 hPa 0,0 l/m 2 min 0 min 0,0 UV-I 323 W/m 28,3 km/h (4 Bft)
12.02.2014 10:58 6,2 C 5,0 C 82 % 1007,8 hPa 0,0 l/m 2 min 0 min 0,0 UV-I 279 W/m 15,4 km/h (3 Bft)
12.02.2014 11:00 6,3 C 5,0 C 81 % 1007,8 hPa 0,0 l/m 2 min 0 min 0,0 UV-I 320 W/m 10,3 km/h (2 Bft)
12.02.2014 11:02 6,3 C 5,0 C 82 % 1007,9 hPa 0,0 l/m 2 min 0 min 0,0 UV-I 327 W/m 5,1 km/h (1 Bft)
12.02.2014 11:04 6,4 C 5,0 C 82 % 1007,9 hPa 0,0 l/m 2 min 0 min 0,0 UV-I 327 W/m 12,9 km/h (3 Bft)
12.02.2014 11:06 6,5 C 5,0 C 82 % 1007,9 hPa 0,0 l/m 2 min 0 min 0,0 UV-I 278 W/m 5,1 km/h (1 Bft)
12.02.2014 11:08 6,6 C 5,0 C 81 % 1007,9 hPa 0,0 l/m 2 min 0 min 0,0 UV-I 374 W/m 18,0 km/h (3 Bft)
12.02.2014 11:10 6,7 C 5,6 C 81 % 1007,8 hPa 0,0 l/m 2 min 0 min 0,0 UV-I 380 W/m 18,0 km/h (3 Bft)
12.02.2014 11:12 6,8 C 5,6 C 80 % 1007,9 hPa 0,0 l/m 2 min 0 min 0,0 UV-I 332 W/m 18,0 km/h (3 Bft)
12.02.2014 11:14 6,8 C 5,6 C 80 % 1007,8 hPa 0,0 l/m 2 min 0 min 0,0 UV-I 346 W/m 10,3 km/h (2 Bft)
12.02.2014 11:16 6,9 C 5,6 C 81 % 1007,9 hPa 0,0 l/m 2 min 0 min 0,0 UV-I 343 W/m 12,9 km/h (3 Bft)
12.02.2014 11:18 7,0 C 5,6 C 80 % 1007,8 hPa 0,0 l/m 2 min 0 min 0,0 UV-I 338 W/m 18,0 km/h (3 Bft)
12.02.2014 11:20 7,1 C 5,6 C 80 % 1007,8 hPa 0,0 l/m 2 min 0 min 0,0 UV-I 338 W/m 28,3 km/h (4 Bft)
12.02.2014 11:22 7,0 C 5,6 C 79 % 1007,8 hPa 0,0 l/m 2 min 0 min 0,0 UV-I 345 W/m 25,7 km/h (4 Bft)
12.02.2014 11:24 6,9 C 5,6 C 79 % 1007,8 hPa 0,0 l/m 2 min 0 min 0,0 UV-I 350 W/m 15,4 km/h (3 Bft)
12.02.2014 11:26 6,9 C 5,0 C 79 % 1007,8 hPa 0,0 l/m 2 min 0 min 0,0 UV-I 325 W/m 18,0 km/h (3 Bft)
12.02.2014 11:28 6,8 C 5,6 C 80 % 1007,7 hPa 0,0 l/m 2 min 0 min 0,0 UV-I 348 W/m 15,4 km/h (3 Bft)
12.02.2014 11:30 6,8 C 5,0 C 79 % 1007,7 hPa 0,0 l/m 2 min 0 min 0,0 UV-I 330 W/m 30,9 km/h (5 Bft)
12.02.2014 11:32 6,7 C 5,0 C 79 % 1007,6 hPa 0,0 l/m 2 min 0 min 0,0 UV-I 345 W/m 18,0 km/h (3 Bft)
12.02.2014 11:34 6,7 C 5,0 C 79 % 1007,6 hPa 0,0 l/m 2 min 0 min 0,0 UV-I 352 W/m 20,6 km/h (4 Bft)
12.02.2014 11:36 6,8 C 5,6 C 79 % 1007,6 hPa 0,0 l/m 2 min 0 min 0,0 UV-I 352 W/m 15,4 km/h (3 Bft)
12.02.2014 11:38 6,9 C 5,6 C 79 % 1007,5 hPa 0,0 l/m 2 min 0 min 0,0 UV-I 353 W/m 15,4 km/h (3 Bft)
12.02.2014 11:40 6,9 C 5,6 C 79 % 1007,5 hPa 0,0 l/m 2 min 0 min 0,0 UV-I 359 W/m 18,0 km/h (3 Bft)
12.02.2014 11:42 7,1 C 5,6 C 79 % 1007,6 hPa 0,0 l/m 2 min 0 min 0,0 UV-I 360 W/m 23,2 km/h (4 Bft)
12.02.2014 11:44 7,2 C 5,6 C 78 % 1007,5 hPa 0,0 l/m 2 min 0 min 0,0 UV-I 359 W/m 12,9 km/h (3 Bft)
12.02.2014 11:46 7,2 C 5,6 C 78 % 1007,4 hPa 0,0 l/m 2 min 0 min 0,0 UV-I 360 W/m 7,7 km/h (2 Bft)
12.02.2014 11:48 7,4 C 5,6 C 78 % 1007,4 hPa 0,0 l/m 2 min 0 min 0,0 UV-I 364 W/m 7,7 km/h (2 Bft)
12.02.2014 11:50 7,5 C 6,1 C 78 % 1007,3 hPa 0,0 l/m 2 min 0 min 0,0 UV-I 367 W/m 15,4 km/h (3 Bft)
12.02.2014 11:52 7,6 C 6,1 C 77 % 1007,2 hPa 0,0 l/m 2 min 0 min 0,0 UV-I 369 W/m 15,4 km/h (3 Bft)
12.02.2014 11:55 7,6 C 6,1 C 77 % 1007,3 hPa 0,0 l/m 2 min 0 min 0,0 UV-I 373 W/m 15,4 km/h (3 Bft)
12.02.2014 11:56 7,6 C 6,1 C 77 % 1007,3 hPa 0,0 l/m 1 min 0 min 0,0 UV-I 373 W/m 15,4 km/h (3 Bft)
12.02.2014 12:02 7,7 C 6,1 C 76 % 1007,2 hPa 0,0 l/m 2 min 0 min 0,0 UV-I 378 W/m 18,0 km/h (3 Bft)
12.02.2014 12:04 7,8 C 6,1 C 76 % 1007,3 hPa 0,0 l/m 2 min 0 min 0,0 UV-I 374 W/m 12,9 km/h (3 Bft)
12.02.2014 12:06 7,8 C 6,1 C 75 % 1007,3 hPa 0,0 l/m 2 min 0 min 0,0 UV-I 380 W/m 18,0 km/h (3 Bft)
12.02.2014 12:08 7,8 C 6,1 C 75 % 1007,2 hPa 0,0 l/m 2 min 0 min 0,0 UV-I 380 W/m 20,6 km/h (4 Bft)
12.02.2014 12:10 7,7 C 6,1 C 74 % 1007,2 hPa 0,0 l/m 2 min 0 min 0,0 UV-I 381 W/m 18,0 km/h (3 Bft)
12.02.2014 12:12 7,7 C 6,1 C 74 % 1007,1 hPa 0,0 l/m 2 min 0 min 0,0 UV-I 383 W/m 12,9 km/h (3 Bft)
12.02.2014 12:14 7,7 C 6,1 C 74 % 1007,1 hPa 0,0 l/m 2 min 0 min 0,0 UV-I 383 W/m 18,0 km/h (3 Bft)
12.02.2014 12:16 7,8 C 6,1 C 74 % 1007,2 hPa 0,0 l/m 2 min 0 min 0,0 UV-I 388 W/m 12,9 km/h (3 Bft)
12.02.2014 12:18 7,9 C 6,7 C 73 % 1007,2 hPa 0,0 l/m 2 min 0 min 0,0 UV-I 387 W/m 18,0 km/h (3 Bft)
12.02.2014 12:20 7,8 C 6,1 C 73 % 1007,1 hPa 0,0 l/m 2 min 0 min 0,0 UV-I 387 W/m 20,6 km/h (4 Bft)
12.02.2014 12:22 7,9 C 6,7 C 71 % 1007,1 hPa 0,0 l/m 2 min 0 min 0,0 UV-I 387 W/m 23,2 km/h (4 Bft)
12.02.2014 12:24 8,0 C 6,7 C 71 % 1007,0 hPa 0,0 l/m 2 min 0 min 0,0 UV-I 390 W/m 18,0 km/h (3 Bft)
12.02.2014 12:26 8,1 C 6,7 C 71 % 1007,0 hPa 0,0 l/m 2 min 0 min 0,0 UV-I 392 W/m 18,0 km/h (3 Bft)
12.02.2014 12:28 8,1 C 6,7 C 72 % 1006,8 hPa 0,0 l/m 2 min 0 min 0,0 UV-I 394 W/m 15,4 km/h (3 Bft)
12.02.2014 12:30 8,1 C 6,7 C 72 % 1006,9 hPa 0,0 l/m 2 min 0 min 0,0 UV-I 392 W/m 12,9 km/h (3 Bft)
12.02.2014 12:32 8,2 C 6,7 C 71 % 1006,9 hPa 0,0 l/m 2 min 0 min 0,0 UV-I 392 W/m 20,6 km/h (4 Bft)
12.02.2014 12:34 8,1 C 6,7 C 71 % 1006,9 hPa 0,0 l/m 2 min 0 min 0,0 UV-I 392 W/m 28,3 km/h (4 Bft)
12.02.2014 12:36 8,1 C 6,7 C 71 % 1006,7 hPa 0,0 l/m 2 min 0 min 0,0 UV-I 394 W/m 15,4 km/h (3 Bft)
12.02.2014 12:38 8,2 C 6,7 C 71 % 1006,7 hPa 0,0 l/m 2 min 0 min 0,0 UV-I 380 W/m 20,6 km/h (4 Bft)
12.02.2014 12:40 8,3 C 7,2 C 71 % 1006,7 hPa 0,0 l/m 2 min 0 min 0,0 UV-I 392 W/m 20,6 km/h (4 Bft)
12.02.2014 12:42 8,4 C 7,2 C 71 % 1006,6 hPa 0,0 l/m 2 min 0 min 0,0 UV-I 394 W/m 18,0 km/h (3 Bft)
12.02.2014 12:44 8,6 C 7,2 C 72 % 1006,6 hPa 0,0 l/m 2 min 0 min 0,0 UV-I 397 W/m 10,3 km/h (2 Bft)
12.02.2014 12:46 8,5 C 7,2 C 69 % 1006,6 hPa 0,0 l/m 2 min 0 min 0,0 UV-I 397 W/m 20,6 km/h (4 Bft)
12.02.2014 12:48 8,5 C 7,2 C 70 % 1006,7 hPa 0,0 l/m 2 min 0 min 0,0 UV-I 399 W/m 18,0 km/h (3 Bft)
12.02.2014 12:50 8,5 C 7,2 C 69 % 1006,6 hPa 0,0 l/m 2 min 0 min 0,0 UV-I 397 W/m 28,3 km/h (4 Bft)
12.02.2014 12:52 8,7 C 7,2 C 70 % 1006,6 hPa 0,0 l/m 2 min 0 min 0,0 UV-I 399 W/m 12,9 km/h (3 Bft)
12.02.2014 12:54 8,7 C 7,2 C 69 % 1006,6 hPa 0,0 l/m 2 min 0 min 0,0 UV-I 401 W/m 20,6 km/h (4 Bft)
12.02.2014 12:56 8,7 C 7,2 C 68 % 1006,6 hPa 0,0 l/m 2 min 0 min 0,5 UV-I 401 W/m 18,0 km/h (3 Bft)
12.02.2014 12:58 8,7 C 7,2 C 68 % 1006,6 hPa 0,0 l/m 2 min 0 min 0,5 UV-I 399 W/m 20,6 km/h (4 Bft)
12.02.2014 13:00 8,8 C 7,2 C 68 % 1006,6 hPa 0,0 l/m 2 min 0 min 0,5 UV-I 397 W/m 20,6 km/h (4 Bft)
12.02.2014 13:02 8,8 C 7,2 C 68 % 1006,5 hPa 0,0 l/m 2 min 0 min 0,0 UV-I 394 W/m 20,6 km/h (4 Bft)
12.02.2014 13:04 8,9 C 7,2 C 68 % 1006,4 hPa 0,0 l/m 2 min 0 min 0,5 UV-I 397 W/m 12,9 km/h (3 Bft)
12.02.2014 13:06 8,9 C 7,2 C 68 % 1006,4 hPa 0,0 l/m 2 min 0 min 0,0 UV-I 394 W/m 23,2 km/h (4 Bft)
12.02.2014 13:08 8,8 C 7,2 C 68 % 1006,4 hPa 0,0 l/m 2 min 0 min 0,0 UV-I 396 W/m 28,3 km/h (4 Bft)
12.02.2014 13:10 8,9 C 7,2 C 67 % 1006,1 hPa 0,0 l/m 2 min 0 min 0,0 UV-I 392 W/m 20,6 km/h (4 Bft)
12.02.2014 13:12 9,0 C 7,2 C 67 % 1006,0 hPa 0,0 l/m 2 min 0 min 0,0 UV-I 397 W/m 20,6 km/h (4 Bft)
12.02.2014 13:14 9,0 C 7,2 C 65 % 1005,9 hPa 0,0 l/m 2 min 0 min 0,0 UV-I 397 W/m 15,4 km/h (3 Bft)
12.02.2014 13:16 9,0 C 7,2 C 64 % 1005,9 hPa 0,0 l/m 2 min 0 min 0,0 UV-I 394 W/m 25,7 km/h (4 Bft)
12.02.2014 13:18 9,0 C 7,2 C 64 % 1005,9 hPa 0,0 l/m 2 min 0 min 0,0 UV-I 394 W/m 25,7 km/h (4 Bft)
12.02.2014 13:20 9,1 C 7,2 C 64 % 1005,7 hPa 0,0 l/m 2 min 0 min 0,0 UV-I 392 W/m 28,3 km/h (4 Bft)
12.02.2014 13:22 9,1 C 7,8 C 64 % 1005,6 hPa 0,0 l/m 2 min 0 min 0,0 UV-I 394 W/m 25,7 km/h (4 Bft)
12.02.2014 13:24 9,1 C 7,8 C 63 % 1005,6 hPa 0,0 l/m 2 min 0 min 0,0 UV-I 390 W/m 28,3 km/h (4 Bft)
12.02.2014 13:26 9,2 C 7,8 C 65 % 1005,6 hPa 0,0 l/m 2 min 0 min 0,0 UV-I 390 W/m 20,6 km/h (4 Bft)
12.02.2014 13:28 9,2 C 7,8 C 63 % 1005,6 hPa 0,0 l/m 2 min 0 min 0,0 UV-I 388 W/m 25,7 km/h (4 Bft)
12.02.2014 13:30 9,3 C 7,8 C 64 % 1005,5 hPa 0,0 l/m 2 min 0 min 0,0 UV-I 387 W/m 23,2 km/h (4 Bft)
12.02.2014 13:32 9,3 C 7,8 C 65 % 1005,5 hPa 0,0 l/m 2 min 0 min 0,0 UV-I 390 W/m 18,0 km/h (3 Bft)
12.02.2014 13:34 9,5 C 7,8 C 66 % 1005,5 hPa 0,0 l/m 2 min 0 min 0,0 UV-I 388 W/m 18,0 km/h (3 Bft)
12.02.2014 13:36 9,6 C 7,8 C 64 % 1005,4 hPa 0,0 l/m 2 min 0 min 0,0 UV-I 388 W/m 23,2 km/h (4 Bft)
12.02.2014 13:38 9,6 C 7,8 C 64 % 1005,4 hPa 0,0 l/m 2 min 0 min 0,0 UV-I 385 W/m 15,4 km/h (3 Bft)
12.02.2014 13:40 9,7 C 7,8 C 64 % 1005,5 hPa 0,0 l/m 2 min 0 min 0,0 UV-I 381 W/m 10,3 km/h (2 Bft)
12.02.2014 13:42 9,7 C 7,8 C 62 % 1005,3 hPa 0,0 l/m 2 min 0 min 0,0 UV-I 380 W/m 18,0 km/h (3 Bft)
12.02.2014 13:44 9,7 C 7,8 C 62 % 1005,3 hPa 0,0 l/m 2 min 0 min 0,0 UV-I 374 W/m 18,0 km/h (3 Bft)
12.02.2014 13:46 9,6 C 7,8 C 62 % 1005,2 hPa 0,0 l/m 2 min 0 min 0,0 UV-I 385 W/m 18,0 km/h (3 Bft)
12.02.2014 13:48 9,7 C 7,8 C 62 % 1005,2 hPa 0,0 l/m 2 min 0 min 0,0 UV-I 383 W/m 20,6 km/h (4 Bft)
12.02.2014 13:50 9,8 C 7,8 C 63 % 1005,2 hPa 0,0 l/m 2 min 0 min 0,0 UV-I 385 W/m 12,9 km/h (3 Bft)
12.02.2014 13:52 9,9 C 7,8 C 63 % 1005,2 hPa 0,0 l/m 2 min 0 min 0,0 UV-I 357 W/m 25,7 km/h (4 Bft)
12.02.2014 13:54 9,8 C 8,3 C 60 % 1005,1 hPa 0,0 l/m 2 min 0 min 0,0 UV-I 330 W/m 28,3 km/h (4 Bft)
12.02.2014 13:56 9,8 C 8,3 C 62 % 1005,2 hPa 0,0 l/m 2 min 0 min 0,0 UV-I 376 W/m 25,7 km/h (4 Bft)
12.02.2014 13:58 9,8 C 8,3 C 61 % 1005,0 hPa 0,0 l/m 2 min 0 min 0,0 UV-I 359 W/m 25,7 km/h (4 Bft)
12.02.2014 14:00 9,8 C 8,3 C 61 % 1005,1 hPa 0,0 l/m 2 min 0 min 0,0 UV-I 343 W/m 12,9 km/h (3 Bft)
12.02.2014 14:02 9,8 C 8,3 C 61 % 1005,0 hPa 0,0 l/m 2 min 0 min 0,0 UV-I 360 W/m 15,4 km/h (3 Bft)
12.02.2014 14:04 9,8 C 8,3 C 60 % 1005,0 hPa 0,0 l/m 2 min 0 min 0,0 UV-I 329 W/m 20,6 km/h (4 Bft)
12.02.2014 14:06 9,8 C 8,3 C 60 % 1005,1 hPa 0,0 l/m 2 min 0 min 0,0 UV-I 260 W/m 12,9 km/h (3 Bft)
12.02.2014 14:08 9,8 C 7,8 C 61 % 1005,1 hPa 0,0 l/m 2 min 0 min 0,0 UV-I 362 W/m 10,3 km/h (2 Bft)
12.02.2014 14:10 9,8 C 7,8 C 59 % 1005,0 hPa 0,0 l/m 2 min 0 min 0,0 UV-I 359 W/m 33,5 km/h (5 Bft)
12.02.2014 14:12 9,8 C 7,8 C 60 % 1005,0 hPa 0,0 l/m 2 min 0 min 0,0 UV-I 359 W/m 20,6 km/h (4 Bft)
12.02.2014 14:14 9,8 C 7,8 C 60 % 1005,0 hPa 0,0 l/m 2 min 0 min 0,0 UV-I 359 W/m 23,2 km/h (4 Bft)
12.02.2014 14:16 9,8 C 7,8 C 60 % 1005,0 hPa 0,0 l/m 2 min 0 min 0,0 UV-I 357 W/m 38,6 km/h (5 Bft)
12.02.2014 14:18 9,7 C 7,8 C 60 % 1004,9 hPa 0,0 l/m 2 min 0 min 0,0 UV-I 355 W/m 23,2 km/h (4 Bft)
12.02.2014 14:20 9,7 C 7,8 C 60 % 1004,9 hPa 0,0 l/m 2 min 0 min 0,0 UV-I 352 W/m 12,9 km/h (3 Bft)
12.02.2014 14:22 9,8 C 7,8 C 60 % 1004,7 hPa 0,0 l/m 2 min 0 min 0,0 UV-I 350 W/m 18,0 km/h (3 Bft)
12.02.2014 14:24 9,8 C 7,8 C 60 % 1004,6 hPa 0,0 l/m 2 min 0 min 0,0 UV-I 348 W/m 20,6 km/h (4 Bft)
12.02.2014 14:26 9,8 C 7,8 C 60 % 1004,6 hPa 0,0 l/m 2 min 0 min 0,0 UV-I 345 W/m 25,7 km/h (4 Bft)
12.02.2014 14:28 9,7 C 7,8 C 60 % 1004,5 hPa 0,0 l/m 2 min 0 min 0,0 UV-I 341 W/m 38,6 km/h (5 Bft)
12.02.2014 14:30 9,7 C 7,8 C 59 % 1004,5 hPa 0,0 l/m 2 min 0 min 0,0 UV-I 341 W/m 36,0 km/h (5 Bft)
12.02.2014 14:32 9,6 C 7,8 C 59 % 1004,5 hPa 0,0 l/m 2 min 0 min 0,0 UV-I 338 W/m 30,9 km/h (5 Bft)
12.02.2014 14:34 9,6 C 7,8 C 60 % 1004,5 hPa 0,0 l/m 2 min 0 min 0,0 UV-I 332 W/m 30,9 km/h (5 Bft)
12.02.2014 14:36 9,6 C 7,8 C 60 % 1004,4 hPa 0,0 l/m 2 min 0 min 0,0 UV-I 332 W/m 20,6 km/h (4 Bft)
12.02.2014 14:38 9,8 C 7,8 C 60 % 1004,3 hPa 0,0 l/m 2 min 0 min 0,0 UV-I 334 W/m 20,6 km/h (4 Bft)
12.02.2014 14:40 9,8 C 8,3 C 59 % 1004,3 hPa 0,0 l/m 2 min 0 min 0,0 UV-I 330 W/m 33,5 km/h (5 Bft)
12.02.2014 14:42 9,8 C 8,3 C 59 % 1004,2 hPa 0,0 l/m 2 min 0 min 0,0 UV-I 311 W/m 28,3 km/h (4 Bft)
12.02.2014 14:44 9,7 C 7,8 C 58 % 1004,2 hPa 0,0 l/m 2 min 0 min 0,0 UV-I 292 W/m 25,7 km/h (4 Bft)
12.02.2014 14:46 9,7 C 7,8 C 59 % 1004,2 hPa 0,0 l/m 0 min 0 min 0,0 UV-I 158 W/m 18,0 km/h (3 Bft)
12.02.2014 14:48 9,6 C 7,8 C 59 % 1004,2 hPa 0,0 l/m 2 min 0 min 0,0 UV-I 271 W/m 23,2 km/h (4 Bft)
12.02.2014 14:50 9,5 C 7,8 C 59 % 1004,2 hPa 0,0 l/m 2 min 0 min 0,0 UV-I 320 W/m 15,4 km/h (3 Bft)
12.02.2014 14:52 9,6 C 7,8 C 59 % 1003,9 hPa 0,0 l/m 2 min 0 min 0,0 UV-I 316 W/m 18,0 km/h (3 Bft)
12.02.2014 14:54 9,6 C 8,3 C 59 % 1003,9 hPa 0,0 l/m 2 min 0 min 0,0 UV-I 223 W/m 28,3 km/h (4 Bft)
12.02.2014 14:56 9,6 C 8,3 C 59 % 1003,9 hPa 0,0 l/m 2 min 0 min 0,0 UV-I 211 W/m 20,6 km/h (4 Bft)
12.02.2014 14:58 9,7 C 8,3 C 59 % 1003,9 hPa 0,0 l/m 2 min 0 min 0,0 UV-I 338 W/m 23,2 km/h (4 Bft)
12.02.2014 15:00 9,7 C 8,3 C 59 % 1003,9 hPa 0,0 l/m 2 min 0 min 0,0 UV-I 325 W/m 15,4 km/h (3 Bft)
12.02.2014 15:02 9,7 C 8,3 C 57 % 1003,8 hPa 0,0 l/m 2 min 0 min 0,0 UV-I 309 W/m 30,9 km/h (5 Bft)
12.02.2014 15:04 9,7 C 8,3 C 58 % 1003,8 hPa 0,0 l/m 2 min 0 min 0,0 UV-I 302 W/m 15,4 km/h (3 Bft)
12.02.2014 15:06 9,8 C 8,3 C 58 % 1003,8 hPa 0,0 l/m 2 min 0 min 0,0 UV-I 295 W/m 20,6 km/h (4 Bft)
12.02.2014 15:08 9,8 C 8,3 C 58 % 1003,7 hPa 0,0 l/m 2 min 0 min 0,0 UV-I 279 W/m 15,4 km/h (3 Bft)
12.02.2014 15:10 9,9 C 8,3 C 60 % 1003,8 hPa 0,0 l/m 2 min 0 min 0,0 UV-I 283 W/m 23,2 km/h (4 Bft)
12.02.2014 15:12 9,8 C 8,3 C 61 % 1003,7 hPa 0,0 l/m 2 min 0 min 0,0 UV-I 279 W/m 28,3 km/h (4 Bft)
12.02.2014 15:14 9,7 C 7,8 C 62 % 1003,7 hPa 0,0 l/m 2 min 0 min 0,0 UV-I 258 W/m 20,6 km/h (4 Bft)
12.02.2014 15:16 9,7 C 7,8 C 62 % 1003,7 hPa 0,0 l/m 2 min 0 min 0,0 UV-I 237 W/m 28,3 km/h (4 Bft)
12.02.2014 15:18 9,7 C 8,3 C 62 % 1003,6 hPa 0,0 l/m 2 min 0 min 0,0 UV-I 257 W/m 18,0 km/h (3 Bft)
12.02.2014 15:20 9,7 C 8,3 C 62 % 1003,5 hPa 0,0 l/m 2 min 0 min 0,0 UV-I 279 W/m 20,6 km/h (4 Bft)
12.02.2014 15:22 9,7 C 8,3 C 63 % 1003,5 hPa 0,0 l/m 2 min 0 min 0,0 UV-I 264 W/m 12,9 km/h (3 Bft)
12.02.2014 15:24 9,7 C 8,3 C 63 % 1003,4 hPa 0,0 l/m 2 min 0 min 0,0 UV-I 258 W/m 20,6 km/h (4 Bft)
12.02.2014 15:26 9,7 C 8,3 C 63 % 1003,4 hPa 0,0 l/m 2 min 0 min 0,0 UV-I 244 W/m 23,2 km/h (4 Bft)
12.02.2014 15:28 9,7 C 8,3 C 63 % 1003,3 hPa 0,0 l/m 2 min 0 min 0,0 UV-I 239 W/m 18,0 km/h (3 Bft)
12.02.2014 15:30 9,7 C 7,8 C 61 % 1003,3 hPa 0,0 l/m 2 min 0 min 0,0 UV-I 237 W/m 23,2 km/h (4 Bft)
12.02.2014 15:32 9,7 C 7,8 C 61 % 1003,2 hPa 0,0 l/m 2 min 0 min 0,0 UV-I 223 W/m 25,7 km/h (4 Bft)
12.02.2014 15:34 9,7 C 7,8 C 61 % 1003,2 hPa 0,0 l/m 2 min 0 min 0,0 UV-I 211 W/m 15,4 km/h (3 Bft)
12.02.2014 15:36 9,7 C 7,8 C 60 % 1003,3 hPa 0,0 l/m 2 min 0 min 0,0 UV-I 176 W/m 28,3 km/h (4 Bft)
12.02.2014 15:38 9,6 C 7,8 C 60 % 1003,1 hPa 0,0 l/m 2 min 0 min 0,0 UV-I 193 W/m 23,2 km/h (4 Bft)
12.02.2014 15:40 9,6 C 7,8 C 61 % 1003,1 hPa 0,0 l/m 2 min 0 min 0,0 UV-I 202 W/m 12,9 km/h (3 Bft)
12.02.2014 15:42 9,5 C 7,8 C 62 % 1003,1 hPa 0,0 l/m 2 min 0 min 0,0 UV-I 185 W/m 15,4 km/h (3 Bft)
12.02.2014 15:44 9,5 C 7,8 C 62 % 1003,0 hPa 0,0 l/m 2 min 0 min 0,0 UV-I 176 W/m 28,3 km/h (4 Bft)
12.02.2014 15:46 9,4 C 7,8 C 62 % 1003,0 hPa 0,0 l/m 2 min 0 min 0,0 UV-I 174 W/m 30,9 km/h (5 Bft)
12.02.2014 15:48 9,4 C 7,8 C 61 % 1003,0 hPa 0,0 l/m 2 min 0 min 0,0 UV-I 204 W/m 36,0 km/h (5 Bft)
12.02.2014 15:50 9,3 C 7,8 C 61 % 1002,9 hPa 0,0 l/m 2 min 0 min 0,0 UV-I 214 W/m 15,4 km/h (3 Bft)
12.02.2014 15:52 9,3 C 7,8 C 62 % 1002,8 hPa 0,0 l/m 2 min 0 min 0,0 UV-I 197 W/m 10,3 km/h (2 Bft)
12.02.2014 15:54 9,3 C 7,8 C 61 % 1002,8 hPa 0,0 l/m 2 min 0 min 0,0 UV-I 195 W/m 36,0 km/h (5 Bft)
12.02.2014 15:56 9,2 C 7,8 C 62 % 1002,8 hPa 0,0 l/m 2 min 0 min 0,0 UV-I 183 W/m 18,0 km/h (3 Bft)
12.02.2014 15:58 9,2 C 7,8 C 62 % 1002,8 hPa 0,0 l/m 2 min 0 min 0,0 UV-I 181 W/m 38,6 km/h (5 Bft)
12.02.2014 16:00 9,2 C 7,2 C 61 % 1002,7 hPa 0,0 l/m 2 min 0 min 0,0 UV-I 174 W/m 33,5 km/h (5 Bft)
12.02.2014 16:02 9,2 C 7,2 C 60 % 1002,6 hPa 0,0 l/m 2 min 0 min 0,0 UV-I 134 W/m 36,0 km/h (5 Bft)
12.02.2014 16:04 9,1 C 7,2 C 61 % 1002,6 hPa 0,0 l/m 2 min 0 min 0,0 UV-I 130 W/m 33,5 km/h (5 Bft)
12.02.2014 16:06 9,1 C 7,2 C 62 % 1002,5 hPa 0,0 l/m 0 min 0 min 0,0 UV-I 114 W/m 30,9 km/h (5 Bft)
12.02.2014 16:08 8,9 C 7,2 C 63 % 1002,4 hPa 0,0 l/m 0 min 0 min 0,0 UV-I 98 W/m 25,7 km/h (4 Bft)
12.02.2014 16:10 8,8 C 7,2 C 63 % 1002,4 hPa 0,0 l/m 0 min 0 min 0,0 UV-I 83 W/m 25,7 km/h (4 Bft)
12.02.2014 16:12 8,7 C 7,2 C 63 % 1002,3 hPa 0,0 l/m 0 min 0 min 0,0 UV-I 81 W/m 38,6 km/h (5 Bft)
12.02.2014 16:14 8,6 C 7,2 C 64 % 1002,2 hPa 0,0 l/m 0 min 0 min 0,0 UV-I 76 W/m 20,6 km/h (4 Bft)
12.02.2014 16:16 8,6 C 6,7 C 65 % 1002,2 hPa 0,0 l/m 0 min 0 min 0,0 UV-I 76 W/m 15,4 km/h (3 Bft)
12.02.2014 16:18 8,4 C 6,7 C 65 % 1002,1 hPa 0,0 l/m 0 min 0 min 0,0 UV-I 76 W/m 28,3 km/h (4 Bft)
12.02.2014 16:20 8,4 C 6,7 C 64 % 1002,0 hPa 0,0 l/m 0 min 0 min 0,0 UV-I 74 W/m 18,0 km/h (3 Bft)
12.02.2014 16:22 8,4 C 6,7 C 64 % 1002,0 hPa 0,0 l/m 0 min 0 min 0,0 UV-I 72 W/m 30,9 km/h (5 Bft)
12.02.2014 16:24 8,3 C 6,7 C 65 % 1002,0 hPa 0,0 l/m 0 min 0 min 0,0 UV-I 70 W/m 18,0 km/h (3 Bft)
12.02.2014 16:26 8,3 C 6,7 C 65 % 1002,0 hPa 0,0 l/m 0 min 0 min 0,0 UV-I 70 W/m 28,3 km/h (4 Bft)
12.02.2014 16:28 8,2 C 6,7 C 65 % 1002,0 hPa 0,0 l/m 0 min 0 min 0,0 UV-I 70 W/m 7,7 km/h (2 Bft)
12.02.2014 16:30 8,2 C 6,7 C 66 % 1002,0 hPa 0,0 l/m 0 min 0 min 0,0 UV-I 69 W/m 23,2 km/h (4 Bft)
12.02.2014 16:32 8,1 C 6,7 C 66 % 1002,0 hPa 0,0 l/m 0 min 0 min 0,0 UV-I 67 W/m 25,7 km/h (4 Bft)
12.02.2014 16:34 8,0 C 6,7 C 67 % 1001,9 hPa 0,0 l/m 0 min 0 min 0,0 UV-I 65 W/m 20,6 km/h (4 Bft)
12.02.2014 16:36 7,9 C 6,7 C 67 % 1001,8 hPa 0,0 l/m 0 min 0 min 0,0 UV-I 63 W/m 23,2 km/h (4 Bft)
12.02.2014 16:38 7,9 C 6,1 C 67 % 1001,7 hPa 0,0 l/m 0 min 0 min 0,0 UV-I 60 W/m 25,7 km/h (4 Bft)
12.02.2014 16:40 7,8 C 6,1 C 67 % 1001,6 hPa 0,0 l/m 0 min 0 min 0,0 UV-I 58 W/m 30,9 km/h (5 Bft)
12.02.2014 16:42 7,7 C 6,1 C 67 % 1001,6 hPa 0,0 l/m 0 min 0 min 0,0 UV-I 54 W/m 25,7 km/h (4 Bft)
12.02.2014 16:44 7,7 C 6,1 C 68 % 1001,5 hPa 0,0 l/m 0 min 0 min 0,0 UV-I 53 W/m 23,2 km/h (4 Bft)
12.02.2014 16:46 7,7 C 6,1 C 68 % 1001,4 hPa 0,0 l/m 0 min 0 min 0,0 UV-I 49 W/m 30,9 km/h (5 Bft)
12.02.2014 16:48 7,6 C 6,1 C 68 % 1001,4 hPa 0,0 l/m 0 min 0 min 0,0 UV-I 46 W/m 23,2 km/h (4 Bft)
12.02.2014 16:50 7,6 C 6,1 C 68 % 1001,4 hPa 0,0 l/m 0 min 0 min 0,0 UV-I 44 W/m 38,6 km/h (5 Bft)
12.02.2014 16:52 7,5 C 6,1 C 68 % 1001,3 hPa 0,0 l/m 0 min 0 min 0,0 UV-I 40 W/m 36,0 km/h (5 Bft)
12.02.2014 16:54 7,4 C 6,1 C 67 % 1001,3 hPa 0,0 l/m 0 min 0 min 0,0 UV-I 37 W/m 33,5 km/h (5 Bft)
12.02.2014 16:56 7,4 C 5,6 C 67 % 1001,1 hPa 0,0 l/m 0 min 0 min 0,0 UV-I 35 W/m 28,3 km/h (4 Bft)
12.02.2014 16:58 7,4 C 5,6 C 67 % 1001,1 hPa 0,0 l/m 0 min 0 min 0,0 UV-I 33 W/m 38,6 km/h (5 Bft)
12.02.2014 17:00 7,3 C 5,6 C 68 % 1001,0 hPa 0,0 l/m 0 min 0 min 0,0 UV-I 30 W/m 33,5 km/h (5 Bft)
12.02.2014 17:02 7,3 C 5,6 C 67 % 1001,0 hPa 0,0 l/m 0 min 0 min 0,0 UV-I 28 W/m 30,9 km/h (5 Bft)
12.02.2014 17:04 7,3 C 5,6 C 68 % 1000,9 hPa 0,0 l/m 0 min 0 min 0,0 UV-I 26 W/m 33,5 km/h (5 Bft)
12.02.2014 17:06 7,2 C 5,6 C 67 % 1000,9 hPa 0,0 l/m 0 min 0 min 0,0 UV-I 25 W/m 28,3 km/h (4 Bft)
12.02.2014 17:08 7,2 C 5,6 C 67 % 1000,9 hPa 0,0 l/m 0 min 0 min 0,0 UV-I 23 W/m 30,9 km/h (5 Bft)
12.02.2014 17:10 7,2 C 5,6 C 68 % 1000,8 hPa 0,0 l/m 0 min 0 min 0,0 UV-I 21 W/m 30,9 km/h (5 Bft)
12.02.2014 17:12 7,2 C 5,6 C 67 % 1000,8 hPa 0,0 l/m 0 min 0 min 0,0 UV-I 19 W/m 41,2 km/h (6 Bft)
12.02.2014 17:14 7,2 C 5,6 C 68 % 1000,7 hPa 0,0 l/m 0 min 0 min 0,0 UV-I 18 W/m 28,3 km/h (4 Bft)
12.02.2014 17:16 7,2 C 5,6 C 68 % 1000,7 hPa 0,0 l/m 0 min 0 min 0,0 UV-I 16 W/m 28,3 km/h (4 Bft)
12.02.2014 17:18 7,2 C 5,6 C 68 % 1000,8 hPa 0,0 l/m 0 min 0 min 0,0 UV-I 14 W/m 28,3 km/h (4 Bft)
12.02.2014 17:20 7,2 C 5,6 C 68 % 1000,9 hPa 0,0 l/m 0 min 0 min 0,0 UV-I 14 W/m 18,0 km/h (3 Bft)
12.02.2014 17:22 7,2 C 5,6 C 68 % 1000,9 hPa 0,0 l/m 0 min 0 min 0,0 UV-I 12 W/m 20,6 km/h (4 Bft)
12.02.2014 17:24 7,1 C 5,6 C 68 % 1000,9 hPa 0,0 l/m 0 min 0 min 0,0 UV-I 12 W/m 20,6 km/h (4 Bft)
12.02.2014 17:26 7,1 C 5,6 C 68 % 1000,8 hPa 0,0 l/m 0 min 0 min 0,0 UV-I 11 W/m 28,3 km/h (4 Bft)
12.02.2014 17:28 7,1 C 5,6 C 69 % 1000,8 hPa 0,0 l/m 0 min 0 min 0,0 UV-I 11 W/m 12,9 km/h (3 Bft)
12.02.2014 17:30 7,1 C 5,6 C 69 % 1000,9 hPa 0,0 l/m 0 min 0 min 0,0 UV-I 9 W/m 25,7 km/h (4 Bft)
12.02.2014 17:32 7,1 C 5,6 C 69 % 1000,9 hPa 0,0 l/m 0 min 0 min 0,0 UV-I 7 W/m 30,9 km/h (5 Bft)
12.02.2014 17:34 7,1 C 5,0 C 69 % 1000,9 hPa 0,0 l/m 0 min 0 min 0,0 UV-I 5 W/m 25,7 km/h (4 Bft)
12.02.2014 17:36 7,0 C 5,0 C 69 % 1000,8 hPa 0,0 l/m 0 min 0 min 0,0 UV-I 0 W/m 25,7 km/h (4 Bft)
12.02.2014 17:38 7,0 C 5,6 C 69 % 1000,8 hPa 0,0 l/m 0 min 0 min 0,0 UV-I 0 W/m 36,0 km/h (5 Bft)
12.02.2014 17:40 7,0 C 5,0 C 69 % 1000,7 hPa 0,0 l/m 0 min 0 min 0,0 UV-I 0 W/m 28,3 km/h (4 Bft)
12.02.2014 17:42 6,9 C 5,0 C 69 % 1000,8 hPa 0,0 l/m 0 min 0 min 0,0 UV-I 0 W/m 38,6 km/h (5 Bft)
12.02.2014 17:44 6,9 C 5,0 C 69 % 1000,8 hPa 0,0 l/m 0 min 0 min 0,0 UV-I 0 W/m 18,0 km/h (3 Bft)
12.02.2014 17:46 6,9 C 5,0 C 69 % 1000,8 hPa 0,0 l/m 0 min 0 min 0,0 UV-I 0 W/m 43,8 km/h (6 Bft)
12.02.2014 17:48 6,9 C 5,0 C 69 % 1000,8 hPa 0,0 l/m 0 min 0 min 0,0 UV-I 0 W/m 25,7 km/h (4 Bft)
12.02.2014 17:50 6,9 C 5,0 C 69 % 1000,8 hPa 0,0 l/m 0 min 0 min 0,0 UV-I 0 W/m 41,2 km/h (6 Bft)
12.02.2014 17:52 6,9 C 5,0 C 69 % 1000,8 hPa 0,0 l/m 0 min 0 min 0,0 UV-I 0 W/m 28,3 km/h (4 Bft)
12.02.2014 17:54 6,9 C 5,0 C 69 % 1000,7 hPa 0,0 l/m 0 min 0 min 0,0 UV-I 0 W/m 36,0 km/h (5 Bft)
12.02.2014 17:56 6,9 C 5,0 C 69 % 1000,7 hPa 0,0 l/m 0 min 0 min 0,0 UV-I 0 W/m 28,3 km/h (4 Bft)
12.02.2014 17:58 6,9 C 5,0 C 69 % 1000,6 hPa 0,0 l/m 0 min 0 min 0,0 UV-I 0 W/m 41,2 km/h (6 Bft)
12.02.2014 18:00 6,9 C 5,0 C 69 % 1000,6 hPa 0,0 l/m 0 min 0 min 0,0 UV-I 0 W/m 23,2 km/h (4 Bft)
12.02.2014 18:02 6,8 C 5,0 C 70 % 1000,6 hPa 0,0 l/m 0 min 0 min 0,0 UV-I 0 W/m 30,9 km/h (5 Bft)
12.02.2014 18:04 6,8 C 5,0 C 70 % 1000,5 hPa 0,0 l/m 0 min 0 min 0,0 UV-I 0 W/m 23,2 km/h (4 Bft)
12.02.2014 18:06 6,8 C 5,0 C 70 % 1000,5 hPa 0,0 l/m 0 min 0 min 0,0 UV-I 0 W/m 33,5 km/h (5 Bft)
12.02.2014 18:08 6,8 C 5,0 C 70 % 1000,4 hPa 0,0 l/m 0 min 0 min 0,0 UV-I 0 W/m 54,1 km/h (7 Bft)
12.02.2014 18:10 6,8 C 5,0 C 70 % 1000,3 hPa 0,0 l/m 0 min 0 min 0,0 UV-I 0 W/m 25,7 km/h (4 Bft)
12.02.2014 18:12 6,7 C 5,0 C 70 % 1000,1 hPa 0,0 l/m 0 min 0 min 0,0 UV-I 0 W/m 23,2 km/h (4 Bft)
12.02.2014 18:14 6,7 C 5,0 C 71 % 1000,2 hPa 0,0 l/m 0 min 0 min 0,0 UV-I 0 W/m 28,3 km/h (4 Bft)
12.02.2014 18:16 6,7 C 5,0 C 71 % 1000,1 hPa 0,0 l/m 0 min 0 min 0,0 UV-I 0 W/m 20,6 km/h (4 Bft)
12.02.2014 18:18 6,7 C 5,0 C 71 % 1000,0 hPa 0,0 l/m 0 min 0 min 0,0 UV-I 0 W/m 30,9 km/h (5 Bft)
12.02.2014 18:20 6,7 C 5,0 C 71 % 1000,1 hPa 0,0 l/m 0 min 0 min 0,0 UV-I 0 W/m 36,0 km/h (5 Bft)
12.02.2014 18:22 6,7 C 5,0 C 71 % 1000,2 hPa 0,0 l/m 0 min 0 min 0,0 UV-I 0 W/m 20,6 km/h (4 Bft)
12.02.2014 18:24 6,7 C 5,0 C 71 % 1000,1 hPa 0,0 l/m 0 min 0 min 0,0 UV-I 0 W/m 28,3 km/h (4 Bft)
12.02.2014 18:26 6,7 C 5,0 C 71 % 1000,0 hPa 0,0 l/m 0 min 0 min 0,0 UV-I 0 W/m 36,0 km/h (5 Bft)
12.02.2014 18:28 6,7 C 5,0 C 71 % 1000,0 hPa 0,0 l/m 0 min 0 min 0,0 UV-I 0 W/m 28,3 km/h (4 Bft)
12.02.2014 18:30 6,7 C 5,0 C 71 % 1000,0 hPa 0,0 l/m 0 min 0 min 0,0 UV-I 0 W/m 33,5 km/h (5 Bft)
12.02.2014 18:32 6,7 C 5,0 C 71 % 1000,0 hPa 0,0 l/m 0 min 0 min 0,0 UV-I 0 W/m 30,9 km/h (5 Bft)
12.02.2014 18:34 6,7 C 5,0 C 71 % 999,9 hPa 0,0 l/m 0 min 0 min 0,0 UV-I 0 W/m 41,2 km/h (6 Bft)
12.02.2014 18:36 6,7 C 5,0 C 71 % 999,9 hPa 0,0 l/m 0 min 0 min 0,0 UV-I 0 W/m 30,9 km/h (5 Bft)
12.02.2014 18:38 6,7 C 5,0 C 71 % 999,9 hPa 0,0 l/m 0 min 0 min 0,0 UV-I 0 W/m 23,2 km/h (4 Bft)
12.02.2014 18:40 6,7 C 5,0 C 71 % 999,8 hPa 0,0 l/m 0 min 0 min 0,0 UV-I 0 W/m 25,7 km/h (4 Bft)
12.02.2014 18:42 6,7 C 5,0 C 71 % 999,7 hPa 0,0 l/m 0 min 0 min 0,0 UV-I 0 W/m 30,9 km/h (5 Bft)
12.02.2014 18:44 6,7 C 5,0 C 71 % 999,6 hPa 0,0 l/m 0 min 0 min 0,0 UV-I 0 W/m 28,3 km/h (4 Bft)
12.02.2014 18:46 6,7 C 5,0 C 72 % 999,5 hPa 0,0 l/m 0 min 0 min 0,0 UV-I 0 W/m 30,9 km/h (5 Bft)
12.02.2014 18:48 6,6 C 5,0 C 72 % 999,5 hPa 0,0 l/m 0 min 0 min 0,0 UV-I 0 W/m 28,3 km/h (4 Bft)
12.02.2014 18:50 6,6 C 5,0 C 72 % 999,4 hPa 0,0 l/m 0 min 0 min 0,0 UV-I 0 W/m 33,5 km/h (5 Bft)
12.02.2014 18:52 6,6 C 5,0 C 72 % 999,5 hPa 0,0 l/m 0 min 0 min 0,0 UV-I 0 W/m 25,7 km/h (4 Bft)
12.02.2014 18:54 6,6 C 5,0 C 72 % 999,5 hPa 0,0 l/m 0 min 0 min 0,0 UV-I 0 W/m 20,6 km/h (4 Bft)
12.02.2014 18:56 6,6 C 5,0 C 72 % 999,5 hPa 0,0 l/m 0 min 0 min 0,0 UV-I 0 W/m 25,7 km/h (4 Bft)
12.02.2014 18:58 6,6 C 5,0 C 72 % 999,5 hPa 0,0 l/m 0 min 0 min 0,0 UV-I 0 W/m 23,2 km/h (4 Bft)
12.02.2014 19:00 6,6 C 5,0 C 72 % 999,4 hPa 0,0 l/m 0 min 0 min 0,0 UV-I 0 W/m 28,3 km/h (4 Bft)
12.02.2014 19:02 6,6 C 5,0 C 72 % 999,5 hPa 0,0 l/m 0 min 0 min 0,0 UV-I 0 W/m 28,3 km/h (4 Bft)
12.02.2014 19:04 6,7 C 5,0 C 72 % 999,5 hPa 0,0 l/m 0 min 0 min 0,0 UV-I 0 W/m 25,7 km/h (4 Bft)
12.02.2014 19:06 6,7 C 5,0 C 72 % 999,5 hPa 0,0 l/m 0 min 0 min 0,0 UV-I 0 W/m 25,7 km/h (4 Bft)
12.02.2014 19:08 6,7 C 5,0 C 72 % 999,4 hPa 0,0 l/m 0 min 0 min 0,0 UV-I 0 W/m 30,9 km/h (5 Bft)
12.02.2014 19:10 6,7 C 5,0 C 72 % 999,4 hPa 0,0 l/m 0 min 0 min 0,0 UV-I 0 W/m 28,3 km/h (4 Bft)
12.02.2014 19:12 6,7 C 5,0 C 72 % 999,5 hPa 0,0 l/m 0 min 0 min 0,0 UV-I 0 W/m 20,6 km/h (4 Bft)
12.02.2014 19:14 6,7 C 5,0 C 72 % 999,5 hPa 0,0 l/m 0 min 0 min 0,0 UV-I 0 W/m 25,7 km/h (4 Bft)
12.02.2014 19:16 6,7 C 5,0 C 72 % 999,4 hPa 0,0 l/m 0 min 0 min 0,0 UV-I 0 W/m 23,2 km/h (4 Bft)
12.02.2014 19:18 6,7 C 5,0 C 73 % 999,4 hPa 0,0 l/m 0 min 0 min 0,0 UV-I 0 W/m 28,3 km/h (4 Bft)
12.02.2014 19:20 6,7 C 5,0 C 73 % 999,4 hPa 0,0 l/m 0 min 0 min 0,0 UV-I 0 W/m 18,0 km/h (3 Bft)
12.02.2014 19:22 6,7 C 5,0 C 73 % 999,3 hPa 0,0 l/m 0 min 0 min 0,0 UV-I 0 W/m 38,6 km/h (5 Bft)
12.02.2014 19:24 6,7 C 5,0 C 73 % 999,3 hPa 0,0 l/m 0 min 0 min 0,0 UV-I 0 W/m 20,6 km/h (4 Bft)
12.02.2014 19:26 6,7 C 5,0 C 73 % 999,2 hPa 0,0 l/m 0 min 0 min 0,0 UV-I 0 W/m 33,5 km/h (5 Bft)
12.02.2014 19:28 6,6 C 5,0 C 74 % 999,2 hPa 0,0 l/m 0 min 0 min 0,0 UV-I 0 W/m 28,3 km/h (4 Bft)
12.02.2014 19:30 6,7 C 5,0 C 74 % 999,3 hPa 0,0 l/m 0 min 0 min 0,0 UV-I 0 W/m 36,0 km/h (5 Bft)
12.02.2014 19:32 6,7 C 5,0 C 74 % 999,1 hPa 0,0 l/m 0 min 0 min 0,0 UV-I 0 W/m 25,7 km/h (4 Bft)
12.02.2014 19:34 6,7 C 5,0 C 74 % 999,1 hPa 0,0 l/m 0 min 0 min 0,0 UV-I 0 W/m 33,5 km/h (5 Bft)
12.02.2014 19:36 6,7 C 5,0 C 74 % 999,1 hPa 0,0 l/m 0 min 0 min 0,0 UV-I 0 W/m 33,5 km/h (5 Bft)
12.02.2014 19:38 6,7 C 5,0 C 74 % 998,9 hPa 0,0 l/m 0 min 0 min 0,0 UV-I 0 W/m 25,7 km/h (4 Bft)
12.02.2014 19:40 6,7 C 5,0 C 74 % 998,9 hPa 0,0 l/m 0 min 0 min 0,0 UV-I 0 W/m 20,6 km/h (4 Bft)
12.02.2014 19:42 6,7 C 5,0 C 74 % 999,0 hPa 0,0 l/m 0 min 0 min 0,0 UV-I 0 W/m 23,2 km/h (4 Bft)
12.02.2014 19:44 6,7 C 5,0 C 74 % 998,8 hPa 0,0 l/m 0 min 0 min 0,0 UV-I 0 W/m 23,2 km/h (4 Bft)
12.02.2014 19:46 6,7 C 5,0 C 74 % 998,8 hPa 0,0 l/m 0 min 0 min 0,0 UV-I 0 W/m 30,9 km/h (5 Bft)
12.02.2014 19:48 6,7 C 5,0 C 74 % 998,7 hPa 0,0 l/m 0 min 0 min 0,0 UV-I 0 W/m 43,8 km/h (6 Bft)
12.02.2014 19:50 6,7 C 5,0 C 74 % 998,5 hPa 0,0 l/m 0 min 0 min 0,0 UV-I 0 W/m 30,9 km/h (5 Bft)
12.02.2014 19:52 6,8 C 5,0 C 74 % 998,6 hPa 0,0 l/m 0 min 0 min 0,0 UV-I 0 W/m 33,5 km/h (5 Bft)
12.02.2014 19:54 6,8 C 5,0 C 74 % 998,7 hPa 0,0 l/m 0 min 0 min 0,0 UV-I 0 W/m 23,2 km/h (4 Bft)
12.02.2014 19:57 6,8 C 5,0 C 74 % 998,6 hPa 0,0 l/m 0 min 0 min 0,0 UV-I 0 W/m 38,6 km/h (5 Bft)
12.02.2014 20:00 6,8 C 5,0 C 74 % 998,6 hPa 0,0 l/m 0 min 0 min 0,0 UV-I 0 W/m 38,6 km/h (5 Bft)
12.02.2014 20:04 6,9 C 5,6 C 74 % 998,5 hPa 0,0 l/m 0 min 0 min 0,0 UV-I 0 W/m 33,5 km/h (5 Bft)
12.02.2014 20:06 6,9 C 5,6 C 74 % 998,6 hPa 0,0 l/m 0 min 0 min 0,0 UV-I 0 W/m 41,2 km/h (6 Bft)
12.02.2014 20:08 6,9 C 5,6 C 74 % 998,5 hPa 0,0 l/m 0 min 0 min 0,0 UV-I 0 W/m 28,3 km/h (4 Bft)
12.02.2014 20:10 6,9 C 5,6 C 74 % 998,6 hPa 0,0 l/m 0 min 0 min 0,0 UV-I 0 W/m 28,3 km/h (4 Bft)
12.02.2014 20:12 6,9 C 5,6 C 74 % 998,3 hPa 0,0 l/m 0 min 0 min 0,0 UV-I 0 W/m 36,0 km/h (5 Bft)
12.02.2014 20:14 6,9 C 5,6 C 74 % 998,0 hPa 0,0 l/m 0 min 0 min 0,0 UV-I 0 W/m 33,5 km/h (5 Bft)
12.02.2014 20:16 6,9 C 5,6 C 74 % 998,1 hPa 0,0 l/m 0 min 0 min 0,0 UV-I 0 W/m 33,5 km/h (5 Bft)
12.02.2014 20:18 6,9 C 5,6 C 74 % 998,0 hPa 0,0 l/m 0 min 0 min 0,0 UV-I 0 W/m 28,3 km/h (4 Bft)
12.02.2014 20:20 6,9 C 5,6 C 74 % 998,2 hPa 0,0 l/m 0 min 0 min 0,0 UV-I 0 W/m 33,5 km/h (5 Bft)
12.02.2014 20:22 7,0 C 5,6 C 74 % 998,0 hPa 0,0 l/m 0 min 0 min 0,0 UV-I 0 W/m 36,0 km/h (5 Bft)
12.02.2014 20:24 7,0 C 5,6 C 74 % 998,0 hPa 0,0 l/m 0 min 0 min 0,0 UV-I 0 W/m 23,2 km/h (4 Bft)
12.02.2014 20:26 7,0 C 5,6 C 74 % 998,0 hPa 0,0 l/m 0 min 0 min 0,0 UV-I 0 W/m 33,5 km/h (5 Bft)
12.02.2014 20:28 7,0 C 5,6 C 74 % 997,9 hPa 0,0 l/m 0 min 0 min 0,0 UV-I 0 W/m 33,5 km/h (5 Bft)
12.02.2014 20:30 7,0 C 5,6 C 74 % 998,0 hPa 0,0 l/m 0 min 0 min 0,0 UV-I 0 W/m 25,7 km/h (4 Bft)
12.02.2014 20:32 7,0 C 5,6 C 74 % 998,1 hPa 0,0 l/m 0 min 0 min 0,0 UV-I 0 W/m 30,9 km/h (5 Bft)
12.02.2014 20:34 7,0 C 5,6 C 74 % 998,0 hPa 0,0 l/m 0 min 0 min 0,0 UV-I 0 W/m 20,6 km/h (4 Bft)
12.02.2014 20:36 7,1 C 5,6 C 74 % 998,1 hPa 0,0 l/m 0 min 0 min 0,0 UV-I 0 W/m 15,4 km/h (3 Bft)
12.02.2014 20:38 7,1 C 5,6 C 74 % 998,1 hPa 0,0 l/m 0 min 0 min 0,0 UV-I 0 W/m 25,7 km/h (4 Bft)
12.02.2014 20:40 7,1 C 5,6 C 74 % 998,2 hPa 0,0 l/m 0 min 0 min 0,0 UV-I 0 W/m 10,3 km/h (2 Bft)
12.02.2014 20:42 7,1 C 5,6 C 74 % 998,1 hPa 0,0 l/m 0 min 2 min 0,0 UV-I 0 W/m 23,2 km/h (4 Bft)
12.02.2014 20:44 7,1 C 5,6 C 74 % 998,1 hPa 0,0 l/m 0 min 2 min 0,0 UV-I 0 W/m 18,0 km/h (3 Bft)
12.02.2014 20:46 7,1 C 5,0 C 74 % 998,1 hPa 0,0 l/m 0 min 2 min 0,0 UV-I 0 W/m 25,7 km/h (4 Bft)
12.02.2014 20:48 7,1 C 5,0 C 74 % 998,2 hPa 0,0 l/m 0 min 2 min 0,0 UV-I 0 W/m 23,2 km/h (4 Bft)
12.02.2014 20:50 7,1 C 5,0 C 74 % 998,1 hPa 0,0 l/m 0 min 2 min 0,0 UV-I 0 W/m 25,7 km/h (4 Bft)
12.02.2014 20:52 7,0 C 4,4 C 75 % 998,1 hPa 0,0 l/m 0 min 2 min 0,0 UV-I 0 W/m 20,6 km/h (4 Bft)
12.02.2014 20:54 6,9 C 4,4 C 75 % 998,0 hPa 0,0 l/m 0 min 2 min 0,0 UV-I 0 W/m 33,5 km/h (5 Bft)
12.02.2014 20:56 6,9 C 4,4 C 75 % 997,9 hPa 0,0 l/m 0 min 2 min 0,0 UV-I 0 W/m 41,2 km/h (6 Bft)
12.02.2014 20:58 6,9 C 3,9 C 76 % 998,1 hPa 0,0 l/m 0 min 2 min 0,0 UV-I 0 W/m 43,8 km/h (6 Bft)
12.02.2014 21:00 6,8 C 3,9 C 77 % 997,8 hPa 0,0 l/m 0 min 2 min 0,0 UV-I 0 W/m 38,6 km/h (5 Bft)
12.02.2014 21:02 6,7 C 3,9 C 78 % 997,9 hPa 0,0 l/m 0 min 2 min 0,0 UV-I 0 W/m 23,2 km/h (4 Bft)
12.02.2014 21:04 6,6 C 3,9 C 79 % 997,9 hPa 0,2 l/m 0 min 2 min 0,0 UV-I 0 W/m 33,5 km/h (5 Bft)
12.02.2014 21:06 6,5 C 3,9 C 79 % 997,8 hPa 0,0 l/m 0 min 2 min 0,0 UV-I 0 W/m 25,7 km/h (4 Bft)
12.02.2014 21:08 6,4 C 3,9 C 80 % 997,7 hPa 0,0 l/m 0 min 2 min 0,0 UV-I 0 W/m 20,6 km/h (4 Bft)
12.02.2014 21:10 6,4 C 3,3 C 80 % 997,7 hPa 0,0 l/m 0 min 2 min 0,0 UV-I 0 W/m 20,6 km/h (4 Bft)
12.02.2014 21:12 6,3 C 3,3 C 81 % 997,8 hPa 0,0 l/m 0 min 2 min 0,0 UV-I 0 W/m 23,2 km/h (4 Bft)
12.02.2014 21:14 6,3 C 3,3 C 82 % 997,7 hPa 0,0 l/m 0 min 2 min 0,0 UV-I 0 W/m 15,4 km/h (3 Bft)
12.02.2014 21:16 6,2 C 3,3 C 82 % 997,8 hPa 0,0 l/m 0 min 2 min 0,0 UV-I 0 W/m 38,6 km/h (5 Bft)
12.02.2014 21:18 6,2 C 3,3 C 82 % 997,7 hPa 0,2 l/m 0 min 2 min 0,0 UV-I 0 W/m 28,3 km/h (4 Bft)
12.02.2014 21:20 6,2 C 3,3 C 82 % 997,7 hPa 0,0 l/m 0 min 2 min 0,0 UV-I 0 W/m 20,6 km/h (4 Bft)
12.02.2014 21:22 6,1 C 3,3 C 83 % 997,8 hPa 0,0 l/m 0 min 2 min 0,0 UV-I 0 W/m 18,0 km/h (3 Bft)
12.02.2014 21:24 6,1 C 3,3 C 84 % 998,0 hPa 0,2 l/m 0 min 2 min 0,0 UV-I 0 W/m 20,6 km/h (4 Bft)
12.02.2014 21:26 6,0 C 3,3 C 84 % 997,9 hPa 0,0 l/m 0 min 2 min 0,0 UV-I 0 W/m 18,0 km/h (3 Bft)
12.02.2014 21:28 5,9 C 3,3 C 85 % 997,7 hPa 0,0 l/m 0 min 2 min 0,0 UV-I 0 W/m 20,6 km/h (4 Bft)
12.02.2014 21:30 5,9 C 3,3 C 85 % 997,6 hPa 0,0 l/m 0 min 2 min 0,0 UV-I 0 W/m 20,6 km/h (4 Bft)
12.02.2014 21:32 5,9 C 3,3 C 85 % 997,6 hPa 0,2 l/m 0 min 2 min 0,0 UV-I 0 W/m 28,3 km/h (4 Bft)
12.02.2014 21:34 5,8 C 3,3 C 86 % 997,5 hPa 0,0 l/m 0 min 2 min 0,0 UV-I 0 W/m 25,7 km/h (4 Bft)
12.02.2014 21:36 5,8 C 3,3 C 86 % 997,5 hPa 0,0 l/m 0 min 2 min 0,0 UV-I 0 W/m 15,4 km/h (3 Bft)
12.02.2014 21:38 5,7 C 3,3 C 86 % 997,6 hPa 0,0 l/m 0 min 2 min 0,0 UV-I 0 W/m 12,9 km/h (3 Bft)
12.02.2014 21:40 5,7 C 3,3 C 87 % 997,4 hPa 0,2 l/m 0 min 2 min 0,0 UV-I 0 W/m 18,0 km/h (3 Bft)
12.02.2014 21:42 5,7 C 3,3 C 87 % 997,4 hPa 0,0 l/m 0 min 2 min 0,0 UV-I 0 W/m 12,9 km/h (3 Bft)
12.02.2014 21:44 5,6 C 3,3 C 87 % 997,4 hPa 0,0 l/m 0 min 2 min 0,0 UV-I 0 W/m 23,2 km/h (4 Bft)
12.02.2014 21:46 5,6 C 3,3 C 87 % 997,4 hPa 0,0 l/m 0 min 2 min 0,0 UV-I 0 W/m 10,3 km/h (2 Bft)
12.02.2014 21:48 5,6 C 3,3 C 87 % 997,4 hPa 0,0 l/m 0 min 2 min 0,0 UV-I 0 W/m 10,3 km/h (2 Bft)
12.02.2014 21:50 5,6 C 3,3 C 88 % 997,3 hPa 0,0 l/m 0 min 2 min 0,0 UV-I 0 W/m 28,3 km/h (4 Bft)
12.02.2014 21:52 5,7 C 3,3 C 88 % 997,2 hPa 0,0 l/m 0 min 2 min 0,0 UV-I 0 W/m 15,4 km/h (3 Bft)
12.02.2014 21:54 5,7 C 3,3 C 87 % 997,2 hPa 0,0 l/m 0 min 0 min 0,0 UV-I 0 W/m 28,3 km/h (4 Bft)
12.02.2014 21:56 5,8 C 3,3 C 87 % 997,2 hPa 0,0 l/m 0 min 2 min 0,0 UV-I 0 W/m 23,2 km/h (4 Bft)
12.02.2014 21:58 5,8 C 3,3 C 87 % 997,2 hPa 0,0 l/m 0 min 2 min 0,0 UV-I 0 W/m 30,9 km/h (5 Bft)
12.02.2014 22:00 5,9 C 3,3 C 87 % 997,1 hPa 0,0 l/m 0 min 2 min 0,0 UV-I 0 W/m 23,2 km/h (4 Bft)
12.02.2014 22:02 5,9 C 3,3 C 86 % 997,1 hPa 0,0 l/m 0 min 2 min 0,0 UV-I 0 W/m 25,7 km/h (4 Bft)
12.02.2014 22:04 5,9 C 3,3 C 86 % 997,1 hPa 0,0 l/m 0 min 2 min 0,0 UV-I 0 W/m 23,2 km/h (4 Bft)
12.02.2014 22:06 6,0 C 3,3 C 85 % 997,2 hPa 0,0 l/m 0 min 2 min 0,0 UV-I 0 W/m 12,9 km/h (3 Bft)
12.02.2014 22:08 6,0 C 3,3 C 85 % 997,1 hPa 0,0 l/m 0 min 2 min 0,0 UV-I 0 W/m 23,2 km/h (4 Bft)
12.02.2014 22:10 6,0 C 3,3 C 85 % 997,0 hPa 0,0 l/m 0 min 2 min 0,0 UV-I 0 W/m 20,6 km/h (4 Bft)
12.02.2014 22:15 6,1 C 3,3 C 84 % 996,9 hPa 0,0 l/m 0 min 2 min 0,0 UV-I 0 W/m 33,5 km/h (5 Bft)
12.02.2014 22:20 6,1 C 3,3 C 84 % 996,9 hPa 0,0 l/m 0 min 2 min 0,0 UV-I 0 W/m 30,9 km/h (5 Bft)
12.02.2014 22:25 6,1 C 3,3 C 83 % 996,8 hPa 0,0 l/m 0 min 0 min 0,0 UV-I 0 W/m 30,9 km/h (5 Bft)
12.02.2014 22:30 6,1 C 3,3 C 83 % 996,7 hPa 0,0 l/m 0 min 0 min 0,0 UV-I 0 W/m 20,6 km/h (4 Bft)
12.02.2014 22:35 6,1 C 3,3 C 83 % 996,7 hPa 0,0 l/m 0 min 0 min 0,0 UV-I 0 W/m 18,0 km/h (3 Bft)
12.02.2014 22:40 6,1 C 3,3 C 83 % 996,7 hPa 0,0 l/m 0 min 0 min 0,0 UV-I 0 W/m 23,2 km/h (4 Bft)
12.02.2014 23:06 6,3 C 3,9 C 82 % 996,7 hPa 0,0 l/m 0 min 0 min 0,0 UV-I 0 W/m 10,3 km/h (2 Bft)
12.02.2014 23:08 6,3 C 3,9 C 82 % 996,6 hPa 0,0 l/m 0 min 0 min 0,0 UV-I 0 W/m 36,0 km/h (5 Bft)
12.02.2014 23:10 6,4 C 3,9 C 82 % 996,7 hPa 0,0 l/m 0 min 0 min 0,0 UV-I 0 W/m 33,5 km/h (5 Bft)
12.02.2014 23:12 6,4 C 3,9 C 81 % 996,6 hPa 0,0 l/m 0 min 0 min 0,0 UV-I 0 W/m 12,9 km/h (3 Bft)
12.02.2014 23:14 6,4 C 3,9 C 81 % 996,7 hPa 0,0 l/m 0 min 0 min 0,0 UV-I 0 W/m 28,3 km/h (4 Bft)
12.02.2014 23:16 6,4 C 3,9 C 81 % 996,7 hPa 0,0 l/m 0 min 0 min 0,0 UV-I 0 W/m 28,3 km/h (4 Bft)
12.02.2014 23:18 6,4 C 3,9 C 81 % 996,8 hPa 0,0 l/m 0 min 0 min 0,0 UV-I 0 W/m 18,0 km/h (3 Bft)
12.02.2014 23:20 6,5 C 3,9 C 81 % 996,6 hPa 0,0 l/m 0 min 0 min 0,0 UV-I 0 W/m 33,5 km/h (5 Bft)
12.02.2014 23:22 6,5 C 3,9 C 81 % 996,8 hPa 0,0 l/m 0 min 0 min 0,0 UV-I 0 W/m 20,6 km/h (4 Bft)
12.02.2014 23:24 6,5 C 3,9 C 81 % 996,7 hPa 0,0 l/m 0 min 0 min 0,0 UV-I 0 W/m 15,4 km/h (3 Bft)
12.02.2014 23:26 6,5 C 3,9 C 81 % 996,7 hPa 0,0 l/m 0 min 0 min 0,0 UV-I 0 W/m 23,2 km/h (4 Bft)
12.02.2014 23:28 6,6 C 3,9 C 80 % 996,6 hPa 0,0 l/m 0 min 0 min 0,0 UV-I 0 W/m 18,0 km/h (3 Bft)
12.02.2014 23:30 6,6 C 3,9 C 80 % 996,7 hPa 0,0 l/m 0 min 0 min 0,0 UV-I 0 W/m 18,0 km/h (3 Bft)
12.02.2014 23:32 6,6 C 3,9 C 80 % 996,6 hPa 0,0 l/m 0 min 0 min 0,0 UV-I 0 W/m 20,6 km/h (4 Bft)
12.02.2014 23:34 6,6 C 3,9 C 80 % 996,6 hPa 0,0 l/m 0 min 0 min 0,0 UV-I 0 W/m 25,7 km/h (4 Bft)
12.02.2014 23:36 6,6 C 3,9 C 80 % 996,5 hPa 0,0 l/m 0 min 0 min 0,0 UV-I 0 W/m 20,6 km/h (4 Bft)
12.02.2014 23:38 6,6 C 3,9 C 80 % 996,6 hPa 0,0 l/m 0 min 0 min 0,0 UV-I 0 W/m 36,0 km/h (5 Bft)
12.02.2014 23:40 6,7 C 3,9 C 80 % 996,7 hPa 0,0 l/m 0 min 0 min 0,0 UV-I 0 W/m 30,9 km/h (5 Bft)
12.02.2014 23:42 6,7 C 3,9 C 80 % 996,7 hPa 0,0 l/m 0 min 0 min 0,0 UV-I 0 W/m 33,5 km/h (5 Bft)
12.02.2014 23:44 6,7 C 3,9 C 80 % 996,5 hPa 0,0 l/m 0 min 0 min 0,0 UV-I 0 W/m 25,7 km/h (4 Bft)
12.02.2014 23:46 6,7 C 3,9 C 80 % 996,4 hPa 0,0 l/m 0 min 0 min 0,0 UV-I 0 W/m 28,3 km/h (4 Bft)
12.02.2014 23:48 6,6 C 3,9 C 80 % 996,5 hPa 0,0 l/m 0 min 0 min 0,0 UV-I 0 W/m 15,4 km/h (3 Bft)
12.02.2014 23:50 6,6 C 3,9 C 80 % 996,7 hPa 0,0 l/m 0 min 0 min 0,0 UV-I 0 W/m 10,3 km/h (2 Bft)
12.02.2014 23:52 6,6 C 3,9 C 80 % 996,8 hPa 0,0 l/m 0 min 0 min 0,0 UV-I 0 W/m 12,9 km/h (3 Bft)
12.02.2014 23:54 6,6 C 3,9 C 81 % 996,9 hPa 0,0 l/m 0 min 0 min 0,0 UV-I 0 W/m 30,9 km/h (5 Bft)
12.02.2014 23:56 6,6 C 3,9 C 81 % 996,8 hPa 0,0 l/m 0 min 0 min 0,0 UV-I 0 W/m 23,2 km/h (4 Bft)
12.02.2014 23:58 6,6 C 3,9 C 81 % 996,9 hPa 0,0 l/m 0 min 0 min 0,0 UV-I 0 W/m 15,4 km/h (3 Bft)
_ Min-Zeit 07:24 04:54 15:02 23:46 - - - - - 00:14
Minimum _ 3,3 C 1,7 C 57 % 996,4 hPa - - - - - 0,0 km/h (0 Bft)
_ Max-Zeit 13:52 13:54 08:58 09:54 10:34 08:58 00:00 12:56 12:54 18:08
Maximum _ 9,9 C 8,3 C 95 % 1008,0 hPa 0,2 l/m 2 min 2 min 0,5 UV-I 401 W/m 54,1 km/h
O-SO (7 Bft)
Durchschnitt _ 6,0 C 4,3 C 80 % 1003,4 hPa #1,2 l/m #6:09 h #1:40 h 0,5 UV-I 219 W/m 17,9 km/h (3 Bft)
© 2014 W. Hausmann